GREAT EAST LAKE DAM: From 05/23/2018 00:00 to 07/24/2018 00:00

Date LAKE ELEVATION [FT] PRECIPITATION INCREMENT [IN] PRECIPITATION TOTAL [IN] AIR TEMPERATURE [F] RELATIVE HUMIDITY [%]
07/22/2018 16:00 574.07 0.00 -- 64.3 100.0
07/22/2018 15:00 574.08 0.00 -- 63.1 100.0
07/22/2018 14:00 574.06 0.00 -- 62.1 100.0
07/22/2018 13:00 574.05 0.00 -- 61.4 100.0
07/22/2018 12:00 574.07 0.00 -- 60.3 100.0
07/22/2018 11:00 574.06 0.00 -- 60.2 100.0
07/22/2018 10:00 574.05 0.00 -- 61.2 100.0
07/22/2018 09:00 574.06 0.00 -- 60.8 100.0
07/22/2018 08:00 574.06 0.00 -- 59.8 100.0
07/22/2018 07:00 574.07 0.00 -- 58.9 100.0
07/22/2018 06:00 574.06 0.00 -- 59.0 100.0
07/22/2018 05:00 574.05 0.00 -- 59.2 100.0
07/22/2018 04:00 574.06 0.00 -- 58.7 100.0
07/22/2018 03:00 574.06 0.00 -- 58.1 100.0
07/22/2018 02:00 574.07 0.00 -- 55.7 100.0
07/22/2018 01:00 574.08 0.00 -- 56.4 100.0
07/22/2018 00:00 574.08 0.00 -- 57.6 100.0
07/21/2018 23:00 574.06 0.00 -- 59.5 100.0
07/21/2018 22:00 574.07 0.00 -- 62.5 100.0
07/21/2018 21:00 574.07 0.00 -- 66.5 100.0
07/21/2018 20:00 574.07 0.00 -- 69.0 100.0
07/21/2018 19:00 574.07 0.00 -- 71.5 100.0
07/21/2018 18:00 574.06 0.00 -- 75.3 100.0
07/21/2018 17:00 574.07 0.00 -- 76.9 100.0
07/21/2018 16:00 574.07 0.00 -- 77.1 100.0
07/21/2018 15:00 574.07 0.00 -- 77.6 100.0
07/21/2018 14:00 574.08 0.00 -- 76.0 100.0
07/21/2018 13:00 574.09 0.00 -- 74.8 100.0
07/21/2018 12:00 574.07 0.00 -- 72.3 100.0
07/21/2018 11:00 574.08 0.00 -- 68.4 100.0
07/21/2018 10:00 574.08 0.00 -- 63.6 100.0
07/21/2018 09:00 574.08 0.00 -- 61.1 100.0
07/21/2018 08:00 574.07 0.00 -- 56.8 100.0
07/21/2018 07:00 574.07 0.00 -- 54.3 100.0
07/21/2018 06:00 574.07 0.00 -- 54.2 100.0
07/21/2018 05:00 574.08 0.00 -- 54.4 100.0
07/21/2018 04:00 574.08 0.00 -- 55.3 100.0
07/21/2018 03:00 574.08 0.00 -- 56.0 100.0
07/21/2018 02:00 574.07 0.00 -- 57.3 100.0
07/21/2018 01:00 574.06 0.00 -- 59.5 100.0
07/21/2018 00:00 574.09 0.00 0.00 62.9 100.0
07/20/2018 23:00 574.06 0.00 -- 64.8 100.0
07/20/2018 22:00 574.07 0.00 -- 66.6 100.0
07/20/2018 21:00 574.08 0.00 -- 70.0 100.0
07/20/2018 20:00 574.08 0.00 -- 73.3 100.0
07/20/2018 19:00 574.08 0.00 -- 76.8 100.0
07/20/2018 18:00 574.08 0.00 -- 80.4 100.0
07/20/2018 17:00 574.09 0.00 -- 81.7 100.0
07/20/2018 16:00 574.08 0.00 -- 83.7 100.0
07/20/2018 15:00 574.08 0.00 -- 81.5 100.0
07/20/2018 14:00 574.09 0.00 -- 80.1 100.0
07/20/2018 13:00 574.09 0.00 -- 78.1 100.0
07/20/2018 12:00 574.09 0.00 -- 75.4 100.0
07/20/2018 11:00 574.09 0.00 -- 72.3 100.0
07/20/2018 10:00 574.09 0.00 -- 68.1 100.0
07/20/2018 09:00 574.09 0.00 -- 64.2 100.0
07/20/2018 08:00 574.09 0.00 -- 59.8 100.0
07/20/2018 07:00 574.08 0.00 -- 57.6 100.0
07/20/2018 06:00 574.09 0.00 -- 57.0 100.0
07/20/2018 05:00 574.09 0.00 -- 56.8 100.0
07/20/2018 04:00 574.10 0.00 -- 56.5 100.0
07/20/2018 03:00 574.09 0.00 -- 57.5 100.0
07/20/2018 02:00 574.09 0.00 -- 59.0 100.0
07/20/2018 01:00 574.09 0.00 -- 61.7 100.0
07/20/2018 00:00 574.09 0.00 0.00 62.7 100.0
07/19/2018 23:00 574.09 0.00 -- 63.6 100.0
07/19/2018 22:00 574.09 0.00 -- 66.1 100.0
07/19/2018 21:00 574.09 0.00 -- 69.2 100.0
07/19/2018 20:00 574.10 0.00 -- 73.1 100.0
07/19/2018 19:00 574.10 0.00 -- 76.7 100.0
07/19/2018 18:00 574.10 0.00 -- 78.8 100.0
07/19/2018 17:00 574.10 0.00 -- 77.2 100.0
07/19/2018 16:00 574.10 0.00 -- 76.2 100.0
07/19/2018 15:00 574.11 0.00 -- 75.3 100.0
07/19/2018 14:00 574.10 0.00 -- 73.8 100.0
07/19/2018 13:00 574.10 0.00 -- 73.4 100.0
07/19/2018 12:00 574.11 0.00 -- 71.0 100.0
07/19/2018 11:00 574.10 0.01 -- 69.4 100.0
07/19/2018 10:00 574.11 0.00 -- 64.5 100.0
07/19/2018 09:00 574.11 0.00 -- 61.5 100.0
07/19/2018 08:00 574.10 0.00 -- 59.4 100.0
07/19/2018 07:00 574.10 0.00 -- 54.5 100.0
07/19/2018 06:00 574.09 0.00 -- 52.8 100.0
07/19/2018 05:00 574.10 0.00 -- 53.7 100.0
07/19/2018 04:00 574.10 0.00 -- 54.5 100.0
07/19/2018 03:00 574.10 0.00 -- 54.3 100.0
07/19/2018 02:00 574.11 0.00 -- 56.4 100.0
07/19/2018 01:00 574.10 0.00 -- 58.0 100.0
07/19/2018 00:00 574.11 0.00 0.01 59.9 100.0
07/18/2018 23:00 574.11 0.00 -- 62.4 100.0
07/18/2018 22:00 574.12 0.00 -- 64.6 100.0
07/18/2018 21:00 574.12 0.00 -- 68.3 100.0
07/18/2018 20:00 574.11 0.00 -- 73.2 100.0
07/18/2018 19:00 574.13 0.00 -- 75.2 100.0
07/18/2018 18:00 574.10 0.00 -- 75.9 100.0
07/18/2018 17:00 574.13 0.00 -- 75.8 100.0
07/18/2018 16:00 574.12 0.00 -- 74.7 100.0
07/18/2018 15:00 574.15 0.00 -- 73.7 100.0
07/18/2018 14:00 574.10 0.00 -- 72.0 100.0
07/18/2018 13:00 574.12 0.00 -- 71.7 100.0
07/18/2018 12:00 574.11 0.00 -- 69.9 100.0
07/18/2018 11:00 574.13 0.00 -- 67.9 100.0
07/18/2018 10:00 574.13 0.00 -- 66.0 90.0
07/18/2018 09:00 574.13 0.00 -- 64.8 58.0
07/18/2018 08:00 574.12 0.00 -- 63.4 52.0
07/18/2018 07:00 574.12 0.00 -- 62.7 48.0
07/18/2018 06:00 574.13 0.00 -- 64.7 43.0
07/18/2018 05:00 574.13 0.00 -- 65.7 41.0
07/18/2018 04:00 574.13 0.00 -- 68.6 42.0
07/18/2018 03:00 574.12 0.00 -- 65.9 42.0
07/18/2018 02:00 574.12 0.00 -- 65.3 39.0
07/18/2018 01:00 574.13 0.00 -- 66.2 39.0
07/18/2018 00:00 574.12 0.00 0.00 67.3 39.0
07/17/2018 23:00 574.11 0.00 -- 69.4 38.0
07/17/2018 22:00 574.09 0.00 -- 69.2 39.0
07/17/2018 21:00 574.11 0.00 -- 69.3 39.0
07/17/2018 20:00 574.09 0.00 -- 69.2 40.0
07/17/2018 19:00 574.10 0.00 -- 69.2 43.0
07/17/2018 18:00 574.09 0.00 -- 69.8 45.0
07/17/2018 17:00 574.11 0.00 -- 70.6 45.0
07/17/2018 16:00 574.09 0.00 -- 71.6 49.0
07/17/2018 15:00 574.09 0.00 -- 72.0 53.0
07/17/2018 14:00 574.07 0.00 -- 72.8 58.0
07/17/2018 13:00 574.06 0.00 -- 74.0 63.0
07/17/2018 12:00 574.06 0.00 -- 75.3 63.0
07/17/2018 11:00 574.10 0.00 -- 73.5 65.0
07/17/2018 10:00 574.08 0.00 -- 74.9 65.0
07/17/2018 09:00 574.08 0.00 -- 74.7 68.2
07/17/2018 08:00 574.08 0.00 -- 74.5 71.4
07/17/2018 07:00 574.07 0.00 -- 74.2 74.5
07/17/2018 06:00 574.07 0.00 -- 74.0 77.7
07/17/2018 05:00 574.07 0.00 -- 73.8 80.9
07/17/2018 04:00 574.07 0.00 -- 73.6 84.1
07/17/2018 03:00 574.07 0.00 -- 73.4 87.3
07/17/2018 02:00 574.07 0.00 -- 73.2 90.5
07/17/2018 01:00 574.06 0.00 -- 72.9 93.6
07/17/2018 00:00 574.06 0.00 0.00 72.7 96.8
07/16/2018 23:00 574.06 0.00 -- 72.5 100.0
07/16/2018 22:00 574.06 0.00 -- 72.6 100.0
07/16/2018 21:00 574.06 0.00 -- 74.4 100.0
07/16/2018 20:00 574.06 0.00 -- 77.1 100.0
07/16/2018 19:00 574.06 0.00 -- 80.0 100.0
07/16/2018 18:00 574.06 0.00 -- 83.0 100.0
07/16/2018 17:00 574.07 0.00 -- 84.4 100.0
07/16/2018 16:00 574.04 0.00 -- 84.1 67.0
07/16/2018 15:00 574.05 0.00 -- 82.8 49.0
07/16/2018 14:00 574.06 0.00 -- 81.6 43.0
07/16/2018 13:00 574.07 0.00 -- 81.9 49.0
07/16/2018 12:00 574.06 0.00 -- 79.6 48.0
07/16/2018 11:00 574.07 0.00 -- 73.3 45.0
07/16/2018 10:00 574.07 0.00 -- 69.3 43.0
07/16/2018 09:00 574.07 0.00 -- 67.9 44.0
07/16/2018 08:00 574.06 0.00 -- 67.2 43.0
07/16/2018 07:00 574.06 0.00 -- 67.4 43.0
07/16/2018 06:00 574.06 0.00 -- 67.9 44.0
07/16/2018 05:00 574.07 0.00 -- 67.0 46.0
07/16/2018 04:00 574.06 0.00 -- 66.4 48.0
07/16/2018 03:00 574.07 0.00 -- 66.3 51.0
07/16/2018 02:00 574.07 0.00 -- 66.2 51.0
07/16/2018 01:00 574.06 0.00 -- 67.9 55.0
07/16/2018 00:00 574.07 0.00 0.00 67.0 56.0
07/15/2018 23:00 574.06 0.00 -- 66.4 57.0
07/15/2018 22:00 574.07 0.00 -- 66.3 57.0
07/15/2018 21:00 574.07 0.00 -- 66.2 60.0
07/15/2018 20:00 574.06 0.00 -- 67.0 54.0
07/15/2018 19:00 574.07 0.00 -- 68.0 45.0
07/15/2018 18:00 574.06 0.00 -- 68.3 40.0
07/15/2018 17:00 574.06 0.00 -- 69.5 65.0
07/15/2018 16:00 574.08 0.00 -- 72.2 100.0
07/15/2018 15:00 574.07 0.00 -- 74.0 100.0
07/15/2018 14:00 574.04 0.00 -- 75.7 100.0
07/15/2018 13:00 574.05 0.00 -- 75.3 100.0
07/15/2018 12:00 574.06 0.00 -- 77.2 100.0
07/15/2018 11:00 574.07 0.00 -- 71.8 100.0
07/15/2018 10:00 574.06 0.00 -- 80.1 100.0
07/15/2018 09:00 574.04 0.00 -- 78.4 100.0
07/15/2018 08:00 574.05 0.00 -- 76.9 100.0
07/15/2018 07:00 574.06 0.00 -- 72.2 100.0
07/15/2018 06:00 574.05 0.00 -- 69.7 100.0
07/15/2018 05:00 574.04 0.00 -- 67.6 100.0
07/15/2018 04:00 574.05 0.00 -- 65.7 100.0
07/15/2018 03:00 574.06 0.00 -- 64.2 100.0
07/15/2018 02:00 574.06 0.00 -- 63.1 100.0
07/15/2018 01:00 574.05 0.00 -- 62.8 100.0
07/15/2018 00:00 574.05 0.00 0.00 63.0 100.0
07/14/2018 23:00 574.04 0.00 -- 62.6 100.0
07/14/2018 22:00 574.06 0.00 -- 62.7 100.0
07/14/2018 21:00 574.04 0.00 -- 62.9 100.0
07/14/2018 20:00 574.07 0.00 -- 63.0 100.0
07/14/2018 19:00 574.05 0.00 -- 64.1 100.0
07/14/2018 18:00 574.05 0.00 -- 65.1 100.0
07/14/2018 17:00 574.07 0.00 -- 65.7 100.0
07/14/2018 16:00 574.06 0.00 -- 66.8 100.0
07/14/2018 15:00 574.04 0.00 -- 67.9 100.0
07/14/2018 14:00 574.06 0.00 -- 69.0 100.0
07/14/2018 13:00 574.07 0.00 -- 69.6 100.0
07/14/2018 12:00 574.05 0.00 -- 70.5 100.0
07/14/2018 11:00 574.07 0.00 -- 70.8 100.0
07/14/2018 10:00 574.05 0.00 -- 72.0 100.0
07/14/2018 09:00 574.05 0.00 -- 70.5 100.0
07/14/2018 08:00 574.05 0.00 -- 69.8 100.0
07/14/2018 07:00 574.06 0.00 -- 68.5 100.0
07/14/2018 06:00 574.06 0.00 -- 65.6 100.0
07/14/2018 05:00 574.06 0.00 -- 63.2 100.0
07/14/2018 04:00 574.06 0.00 -- 60.9 100.0
07/14/2018 03:00 574.07 0.00 -- 58.1 100.0
07/14/2018 02:00 574.05 0.00 -- 55.7 100.0
07/14/2018 01:00 574.07 0.00 -- 55.1 100.0
07/14/2018 00:00 574.07 0.00 0.00 55.5 100.0
07/13/2018 23:00 574.06 0.00 -- 56.1 100.0
07/13/2018 22:00 574.07 0.00 -- 56.7 100.0
07/13/2018 21:00 574.07 0.00 -- 57.9 100.0
07/13/2018 20:00 574.06 0.00 -- 59.3 100.0
07/13/2018 19:00 574.07 0.00 -- 61.1 100.0
07/13/2018 18:00 574.07 0.00 -- 62.4 100.0
07/13/2018 17:00 574.06 0.00 -- 65.4 100.0
07/13/2018 16:00 574.07 0.00 -- 67.4 100.0
07/13/2018 15:00 574.08 0.00 -- 69.3 100.0
07/13/2018 14:00 574.09 0.00 -- 72.1 100.0
07/13/2018 13:00 574.08 0.00 -- 72.3 100.0
07/13/2018 12:00 574.09 0.00 -- 77.0 100.0
07/13/2018 11:00 574.06 0.00 -- 77.4 100.0
07/13/2018 10:00 574.07 0.00 -- 79.1 100.0
07/13/2018 09:00 574.07 0.00 -- 77.5 100.0
07/13/2018 08:00 574.08 0.00 -- 76.3 100.0
07/13/2018 07:00 574.08 0.00 -- 75.0 100.0
07/13/2018 06:00 574.08 0.00 -- 70.4 100.0
07/13/2018 05:00 574.08 0.00 -- 66.7 100.0
07/13/2018 04:00 574.08 0.00 -- 63.4 100.0
07/13/2018 03:00 574.08 0.00 -- 60.5 100.0
07/13/2018 02:00 574.08 0.00 -- 57.8 100.0
07/13/2018 01:00 574.09 0.00 -- 58.4 100.0
07/13/2018 00:00 574.08 0.00 0.00 58.3 100.0
07/12/2018 23:00 574.08 0.00 -- 59.3 100.0
07/12/2018 22:00 574.08 0.00 -- 62.5 100.0
07/12/2018 21:00 574.08 0.00 -- 62.2 100.0
07/12/2018 20:00 574.08 0.00 -- 64.3 100.0
07/12/2018 19:00 574.08 0.00 -- 65.5 100.0
07/12/2018 18:00 574.08 0.00 -- 65.9 100.0
07/12/2018 17:00 574.08 0.00 -- 67.0 100.0
07/12/2018 16:00 574.07 0.00 -- 69.9 100.0
07/12/2018 15:00 574.09 0.00 -- 71.1 100.0
07/12/2018 14:00 574.08 0.00 -- 74.0 100.0
07/12/2018 13:00 574.09 0.00 -- 77.3 100.0
07/12/2018 12:00 574.08 0.00 -- 76.5 100.0
07/12/2018 11:00 574.09 0.00 -- 75.9 100.0
07/12/2018 10:00 574.09 0.00 -- 74.1 100.0
07/12/2018 09:00 574.09 0.00 -- 74.0 100.0
07/12/2018 08:00 574.10 0.00 -- 73.8 100.0
07/12/2018 07:00 574.10 0.00 -- 73.1 100.0
07/12/2018 06:00 574.09 0.00 -- 70.7 100.0
07/12/2018 05:00 574.09 0.00 -- 67.6 100.0
07/12/2018 04:00 574.10 0.00 -- 63.6 100.0
07/12/2018 03:00 574.09 0.00 -- 58.2 100.0
07/12/2018 02:00 574.09 0.00 -- 56.1 100.0
07/12/2018 01:00 574.10 0.00 -- 57.0 100.0
07/12/2018 00:00 574.10 0.00 0.00 56.8 100.0
07/11/2018 23:00 574.10 0.00 -- 57.7 100.0
07/11/2018 22:00 574.10 0.00 -- 58.9 100.0
07/11/2018 21:00 574.09 0.00 -- 60.0 100.0
07/11/2018 20:00 574.08 0.00 -- 61.2 100.0
07/11/2018 19:00 574.10 0.00 -- 61.7 100.0
07/11/2018 18:00 574.10 0.00 -- 63.1 100.0
07/11/2018 17:00 574.10 0.00 -- 67.6 100.0
07/11/2018 16:00 574.10 0.00 -- 70.7 100.0
07/11/2018 15:00 574.10 0.00 -- 72.9 100.0
07/11/2018 14:00 574.10 0.00 -- 74.0 100.0
07/11/2018 13:00 574.10 0.00 -- 77.7 100.0
07/11/2018 12:00 574.11 0.00 -- 76.9 100.0
07/11/2018 11:00 574.10 0.00 -- 77.0 100.0
07/11/2018 10:00 574.10 0.00 -- 76.1 100.0
07/11/2018 09:00 574.10 0.00 -- 73.5 100.0
07/11/2018 08:00 574.12 0.00 -- 72.8 100.0
07/11/2018 07:00 574.11 0.00 -- 70.4 100.0
07/11/2018 06:00 574.12 0.00 -- 69.9 100.0
07/11/2018 05:00 574.11 0.00 -- 67.6 100.0
07/11/2018 04:00 574.11 0.00 -- 66.1 100.0
07/11/2018 03:00 574.11 0.00 -- 66.1 100.0
07/11/2018 02:00 574.12 0.00 -- 67.5 100.0
07/11/2018 01:00 574.11 0.00 -- 67.9 100.0
07/11/2018 00:00 574.11 0.00 0.00 68.9 100.0
07/10/2018 23:00 574.10 0.00 -- 70.2 100.0
07/10/2018 22:00 574.10 0.00 -- 69.5 100.0
07/10/2018 21:00 574.11 0.00 -- 69.0 100.0
07/10/2018 20:00 574.10 0.00 -- 69.7 100.0
07/10/2018 19:00 574.11 0.00 -- 70.9 100.0
07/10/2018 18:00 574.12 0.00 -- 72.2 100.0
07/10/2018 17:00 574.12 0.00 -- 73.0 100.0
07/10/2018 16:00 574.12 0.00 -- 75.5 100.0
07/10/2018 15:00 574.12 0.00 -- 76.8 100.0
07/10/2018 14:00 574.11 0.00 -- 78.0 100.0
07/10/2018 13:00 574.13 0.00 -- 84.3 100.0
07/10/2018 12:00 574.13 0.00 -- 84.0 100.0
07/10/2018 11:00 574.13 0.00 -- 85.2 100.0
07/10/2018 10:00 574.11 0.00 -- 84.5 100.0
07/10/2018 09:00 574.11 0.00 -- 82.9 100.0
07/10/2018 08:00 574.11 0.00 -- 82.8 100.0
07/10/2018 07:00 574.12 0.00 -- 64.2 100.0
07/10/2018 06:00 574.11 0.00 -- 65.2 100.0
07/10/2018 05:00 574.13 0.00 -- 63.1 100.0
07/10/2018 04:00 574.13 0.00 -- 63.1 100.0
07/10/2018 03:00 574.12 0.00 -- 64.8 100.0
07/10/2018 02:00 574.12 0.00 -- 66.6 100.0
07/10/2018 01:00 574.11 0.00 -- 68.3 100.0
07/10/2018 00:00 574.13 0.00 0.00 69.8 100.0
07/09/2018 23:00 574.12 0.00 -- 71.1 100.0
07/09/2018 22:00 574.12 0.00 -- 72.8 100.0
07/09/2018 21:00 574.12 0.00 -- 75.8 100.0
07/09/2018 20:00 574.12 0.00 -- 80.0 100.0
07/09/2018 19:00 574.12 0.00 -- 84.5 100.0
07/09/2018 18:00 574.13 0.00 -- 87.7 100.0
07/09/2018 17:00 574.13 0.00 -- 88.1 100.0
07/09/2018 16:00 574.14 0.00 -- 88.1 100.0
07/09/2018 15:00 574.13 0.00 -- 85.4 100.0
07/09/2018 14:00 574.13 0.00 -- 82.5 100.0
07/09/2018 13:00 574.14 0.00 -- 80.4 100.0
07/09/2018 12:00 574.15 0.00 -- 77.8 100.0
07/09/2018 11:00 574.13 0.00 -- 75.8 100.0
07/09/2018 10:00 574.13 0.01 -- 72.3 100.0
07/09/2018 09:00 574.13 0.00 -- 68.7 100.0
07/09/2018 08:00 574.14 0.00 -- 61.3 100.0
07/09/2018 07:00 574.14 0.00 -- 58.7 100.0
07/09/2018 06:00 574.15 0.00 -- 58.8 100.0
07/09/2018 05:00 574.13 0.00 -- 59.8 100.0
07/09/2018 04:00 574.13 0.00 -- 61.6 100.0
07/09/2018 03:00 574.13 0.00 -- 62.9 100.0
07/09/2018 02:00 574.14 0.00 -- 64.3 100.0
07/09/2018 01:00 574.12 0.00 -- 65.7 100.0
07/09/2018 00:00 574.14 0.00 0.01 67.9 100.0
07/08/2018 23:00 574.14 0.00 -- 69.2 100.0
07/08/2018 22:00 574.14 0.00 -- 70.6 100.0
07/08/2018 21:00 574.13 0.00 -- 72.9 100.0
07/08/2018 20:00 574.14 0.00 -- 76.6 100.0
07/08/2018 19:00 574.13 0.00 -- 79.8 100.0
07/08/2018 18:00 574.15 0.00 -- 82.9 100.0
07/08/2018 17:00 574.14 0.00 -- 82.4 100.0
07/08/2018 16:00 574.15 0.00 -- 82.2 100.0
07/08/2018 15:00 574.16 0.00 -- 80.2 100.0
07/08/2018 14:00 574.15 0.00 -- 78.2 100.0
07/08/2018 13:00 574.14 0.00 -- 76.7 100.0
07/08/2018 12:00 574.15 0.00 -- 74.6 100.0
07/08/2018 11:00 574.15 0.00 -- 72.7 100.0
07/08/2018 10:00 574.15 0.00 -- 68.8 100.0
07/08/2018 09:00 574.15 0.00 -- 64.3 100.0
07/08/2018 08:00 574.14 0.00 -- 59.6 100.0
07/08/2018 07:00 574.15 0.00 -- 59.3 100.0
07/08/2018 06:00 574.15 0.00 -- 54.9 100.0
07/08/2018 05:00 574.16 0.00 -- 55.4 100.0
07/08/2018 04:00 574.15 0.00 -- 55.8 100.0
07/08/2018 03:00 574.15 0.00 -- 56.6 100.0
07/08/2018 02:00 574.16 0.00 -- 56.5 100.0
07/08/2018 01:00 574.16 0.00 -- 57.6 100.0
07/08/2018 00:00 574.15 0.00 0.00 59.4 100.0
07/07/2018 23:00 574.15 0.00 -- 61.6 100.0
07/07/2018 22:00 574.15 0.00 -- 64.6 100.0
07/07/2018 21:00 574.16 0.00 -- 68.9 100.0
07/07/2018 20:00 574.15 0.00 -- 74.6 100.0
07/07/2018 19:00 574.16 0.00 -- 75.1 100.0
07/07/2018 18:00 574.17 0.00 -- 76.3 100.0
07/07/2018 17:00 574.16 0.00 -- 75.5 100.0
07/07/2018 16:00 574.15 0.00 -- 74.7 100.0
07/07/2018 15:00 574.16 0.00 -- 73.0 100.0
07/07/2018 14:00 574.17 0.00 -- 71.6 100.0
07/07/2018 13:00 574.16 0.00 -- 69.2 100.0
07/07/2018 12:00 574.18 0.00 -- 67.6 100.0
07/07/2018 11:00 574.18 0.00 -- 66.1 100.0
07/07/2018 10:00 574.16 0.00 -- 63.0 100.0
07/07/2018 09:00 574.16 0.00 -- 59.5 100.0
07/07/2018 08:00 574.17 0.00 -- 54.5 100.0
07/07/2018 07:00 574.17 0.00 -- 51.8 100.0
07/07/2018 06:00 574.17 0.00 -- 52.5 100.0
07/07/2018 05:00 574.19 0.00 -- 54.4 100.0
07/07/2018 04:00 574.18 0.00 -- 54.9 100.0
07/07/2018 03:00 574.18 0.00 -- 55.5 100.0
07/07/2018 02:00 574.19 0.00 -- 59.6 100.0
07/07/2018 01:00 574.19 0.00 -- 61.3 100.0
07/07/2018 00:00 574.18 0.00 0.00 62.5 100.0
07/06/2018 23:00 574.18 0.00 -- 63.6 100.0
07/06/2018 22:00 574.20 0.00 -- 65.4 100.0
07/06/2018 21:00 574.22 0.00 -- 69.0 100.0
07/06/2018 20:00 574.20 0.00 -- 71.2 100.0
07/06/2018 19:00 574.22 0.00 -- 74.2 100.0
07/06/2018 18:00 574.20 0.00 -- 76.4 100.0
07/06/2018 17:00 574.20 0.00 -- 78.1 100.0
07/06/2018 16:00 574.17 0.00 -- 80.9 100.0
07/06/2018 15:00 574.23 0.00 -- 81.4 100.0
07/06/2018 14:00 574.19 0.00 -- 79.7 100.0
07/06/2018 13:00 574.20 0.00 -- 76.7 100.0
07/06/2018 12:00 574.19 0.00 -- 75.9 100.0
07/06/2018 11:00 574.20 0.00 -- 74.9 100.0
07/06/2018 10:00 574.18 0.00 -- 74.5 100.0
07/06/2018 09:00 574.19 0.00 -- 75.4 100.0
07/06/2018 08:00 574.19 0.00 -- 76.3 100.0
07/06/2018 07:00 574.20 0.00 -- 75.9 100.0
07/06/2018 06:00 574.18 0.00 -- 75.8 100.0
07/06/2018 05:00 574.21 0.00 -- 76.0 100.0
07/06/2018 04:00 574.20 0.00 -- 75.9 100.0
07/06/2018 03:00 574.19 0.00 -- 77.2 100.0
07/06/2018 02:00 574.19 0.00 -- 78.0 100.0
07/06/2018 01:00 574.19 0.00 -- 78.9 100.0
07/06/2018 00:00 574.20 0.00 0.00 79.8 100.0
07/05/2018 23:00 574.19 0.00 -- 80.0 100.0
07/05/2018 22:00 574.21 0.00 -- 80.9 100.0
07/05/2018 21:00 574.19 0.00 -- 81.7 100.0
07/05/2018 20:00 574.22 0.00 -- 81.4 100.0
07/05/2018 19:00 574.18 0.00 -- 81.8 100.0
07/05/2018 18:00 574.21 0.00 -- 89.0 100.0
07/05/2018 17:00 574.19 0.00 -- 91.7 100.0
07/05/2018 16:00 574.21 0.00 -- 91.3 100.0
07/05/2018 15:00 574.19 0.00 -- 90.1 100.0
07/05/2018 14:00 574.21 0.00 -- 89.5 100.0
07/05/2018 13:00 574.21 0.00 -- 88.8 100.0
07/05/2018 12:00 574.20 0.00 -- 87.3 100.0
07/05/2018 11:00 574.21 0.00 -- 83.7 100.0
07/05/2018 10:00 574.22 0.00 -- 78.2 100.0
07/05/2018 09:00 574.21 0.00 -- 73.1 100.0
07/05/2018 08:00 574.20 0.00 -- 69.0 100.0
07/05/2018 07:00 574.21 0.00 -- 66.4 100.0
07/05/2018 06:00 574.21 0.00 -- 66.2 100.0
07/05/2018 05:00 574.21 0.00 -- 67.1 100.0
07/05/2018 04:00 574.21 0.00 -- 68.3 100.0
07/05/2018 03:00 574.21 0.00 -- 68.3 100.0
07/05/2018 02:00 574.21 0.00 -- 69.2 100.0
07/05/2018 01:00 574.21 0.00 -- 70.6 100.0
07/05/2018 00:00 574.22 0.01 0.00 72.6 100.0
07/04/2018 23:00 574.21 0.00 -- 74.8 100.0
07/04/2018 22:00 574.21 0.00 -- 78.5 100.0
07/04/2018 21:00 574.21 0.00 -- 80.5 100.0
07/04/2018 20:00 574.21 0.00 -- 82.3 100.0
07/04/2018 19:00 574.22 0.00 -- 86.6 100.0
07/04/2018 18:00 574.22 0.00 -- 90.4 100.0
07/04/2018 17:00 574.22 0.00 -- 91.5 100.0
07/04/2018 16:00 574.22 0.00 -- 90.4 100.0
07/04/2018 15:00 574.22 0.00 -- 89.9 100.0
07/04/2018 14:00 574.22 0.00 -- 88.7 100.0
07/04/2018 13:00 574.22 0.00 -- 86.4 100.0
07/04/2018 12:00 574.22 0.00 -- 85.1 100.0
07/04/2018 11:00 574.23 0.00 -- 81.8 100.0
07/04/2018 10:00 574.22 0.00 -- 78.0 100.0
07/04/2018 09:00 574.22 0.00 -- 73.9 100.0
07/04/2018 08:00 574.22 0.00 -- 69.1 100.0
07/04/2018 07:00 574.22 0.00 -- 67.3 100.0
07/04/2018 06:00 574.22 0.00 -- 67.6 100.0
07/04/2018 05:00 574.22 0.00 -- 68.1 100.0
07/04/2018 04:00 574.22 0.00 -- 68.2 100.0
07/04/2018 03:00 574.22 0.00 -- 68.8 100.0
07/04/2018 02:00 574.22 0.00 -- 69.8 100.0
07/04/2018 01:00 574.22 0.00 -- 70.4 100.0
07/04/2018 00:00 574.22 0.00 0.01 72.6 100.0
07/03/2018 23:00 574.22 0.00 -- 73.0 100.0
07/03/2018 22:00 574.23 0.00 -- 75.4 100.0
07/03/2018 21:00 574.23 0.00 -- 79.3 100.0
07/03/2018 20:00 574.23 0.00 -- 83.2 100.0
07/03/2018 19:00 574.22 0.00 -- 88.7 100.0
07/03/2018 18:00 574.24 0.00 -- 91.1 100.0
07/03/2018 17:00 574.23 0.00 -- 90.9 100.0
07/03/2018 16:00 574.25 0.00 -- 90.3 100.0
07/03/2018 15:00 574.22 0.00 -- 89.6 100.0
07/03/2018 14:00 574.24 0.01 -- 88.0 100.0
07/03/2018 13:00 574.23 0.00 -- 87.1 100.0
07/03/2018 12:00 574.23 0.00 -- 83.1 100.0
07/03/2018 11:00 574.23 0.00 -- 81.2 100.0
07/03/2018 10:00 574.23 0.00 -- 79.5 100.0
07/03/2018 09:00 574.24 0.00 -- 74.1 100.0
07/03/2018 08:00 574.25 0.00 -- 70.1 100.0
07/03/2018 07:00 574.24 0.00 -- 68.3 100.0
07/03/2018 06:00 574.23 0.00 -- 67.3 100.0
07/03/2018 05:00 574.23 0.00 -- 67.4 100.0
07/03/2018 04:00 574.23 0.00 -- 67.5 100.0
07/03/2018 03:00 574.25 0.00 -- 67.8 100.0
07/03/2018 02:00 574.26 0.00 -- 68.1 100.0
07/03/2018 01:00 574.24 0.00 -- 69.1 100.0
07/03/2018 00:00 574.24 0.00 0.01 70.0 100.0
07/02/2018 23:00 574.24 0.00 -- 71.2 100.0
07/02/2018 22:00 574.23 0.00 -- 72.8 100.0
07/02/2018 21:00 574.24 0.00 -- 75.2 100.0
07/02/2018 20:00 574.24 0.00 -- 77.9 100.0
07/02/2018 19:00 574.24 0.00 -- 80.6 100.0
07/02/2018 18:00 574.25 0.00 -- 83.1 100.0
07/02/2018 17:00 574.24 0.00 -- 85.0 100.0
07/02/2018 16:00 574.23 0.00 -- 85.8 100.0
07/02/2018 15:00 574.23 0.00 -- 85.5 100.0
07/02/2018 14:00 574.24 0.01 -- 83.4 100.0
07/02/2018 13:00 574.24 0.00 -- 80.7 100.0
07/02/2018 12:00 574.24 0.00 -- 79.0 100.0
07/02/2018 11:00 574.25 0.00 -- 77.1 100.0
07/02/2018 10:00 574.25 0.00 -- 74.1 100.0
07/02/2018 09:00 574.25 0.00 -- 71.5 100.0
07/02/2018 08:00 574.26 0.00 -- 70.4 100.0
07/02/2018 07:00 574.24 0.00 -- 69.9 100.0
07/02/2018 06:00 574.25 0.00 -- 69.9 100.0
07/02/2018 05:00 574.26 0.00 -- 70.2 100.0
07/02/2018 04:00 574.27 0.00 -- 70.4 100.0
07/02/2018 03:00 574.24 0.00 -- 69.6 100.0
07/02/2018 02:00 574.24 0.00 -- 70.9 100.0
07/02/2018 01:00 574.25 0.00 -- 69.9 100.0
07/02/2018 00:00 574.26 0.00 0.01 70.2 100.0
07/01/2018 23:00 574.27 0.00 -- 70.4 100.0
07/01/2018 22:00 574.24 0.00 -- 69.6 100.0
07/01/2018 21:00 574.24 0.00 -- 70.9 100.0
07/01/2018 20:00 574.23 0.00 -- 72.2 100.0
07/01/2018 19:00 574.24 0.00 -- 72.9 100.0
07/01/2018 18:00 574.25 0.00 -- 73.1 100.0
07/01/2018 17:00 574.24 0.01 -- 74.6 100.0
07/01/2018 16:00 574.26 0.00 -- 77.0 100.0
07/01/2018 15:00 574.24 0.00 -- 79.4 100.0
07/01/2018 14:00 574.25 0.00 -- 81.8 100.0
07/01/2018 13:00 574.24 0.00 -- 83.6 100.0
07/01/2018 12:00 574.26 0.00 -- 86.6 100.0
07/01/2018 11:00 574.23 0.00 -- 87.7 100.0
07/01/2018 10:00 574.23 0.00 -- 87.5 100.0
07/01/2018 09:00 574.25 0.00 -- 86.1 100.0
07/01/2018 08:00 574.25 0.00 -- 86.8 100.0
07/01/2018 07:00 574.24 0.00 -- 83.9 100.0
07/01/2018 06:00 574.25 0.00 -- 81.4 100.0
07/01/2018 05:00 574.23 0.00 -- 78.6 100.0
07/01/2018 04:00 574.22 0.01 -- 77.1 100.0
07/01/2018 03:00 574.20 0.00 -- 75.2 100.0
07/01/2018 02:00 574.24 0.00 -- 74.5 100.0
07/01/2018 01:00 574.19 0.00 -- 73.9 100.0
07/01/2018 00:00 574.28 0.00 0.02 76.6 100.0
06/30/2018 23:00 574.24 0.00 -- 74.2 100.0
06/30/2018 22:00 574.25 0.00 -- 75.8 100.0
06/30/2018 21:00 574.26 0.00 -- 77.4 100.0
06/30/2018 20:00 574.26 0.00 -- 74.3 100.0
06/30/2018 19:00 574.25 0.00 -- 73.9 100.0
06/30/2018 18:00 574.26 0.01 -- 73.9 100.0
06/30/2018 17:00 574.23 0.00 -- 77.5 100.0
06/30/2018 16:00 574.24 0.00 -- 81.4 100.0
06/30/2018 15:00 574.27 0.00 -- 83.6 100.0
06/30/2018 14:00 574.24 0.00 -- 85.9 100.0
06/30/2018 13:00 574.25 0.00 -- 87.6 100.0
06/30/2018 12:00 574.25 0.00 -- 87.9 100.0
06/30/2018 11:00 574.25 0.00 -- 85.9 100.0
06/30/2018 10:00 574.26 0.00 -- 87.5 100.0
06/30/2018 09:00 574.26 0.00 -- 86.2 100.0
06/30/2018 08:00 574.26 0.00 -- 85.5 100.0
06/30/2018 07:00 574.26 0.00 -- 83.7 100.0
06/30/2018 06:00 574.26 0.00 -- 79.6 100.0
06/30/2018 05:00 574.26 0.00 -- 76.1 100.0
06/30/2018 04:00 574.26 0.01 -- 71.2 100.0
06/30/2018 03:00 574.27 0.00 -- 70.1 100.0
06/30/2018 02:00 574.27 0.00 -- 68.8 100.0
06/30/2018 01:00 574.26 0.00 -- 69.4 100.0
06/30/2018 00:00 574.26 0.00 0.02 68.0 100.0
06/29/2018 23:00 574.27 0.00 -- 67.4 100.0
06/29/2018 22:00 574.26 0.00 -- 65.0 100.0
06/29/2018 21:00 574.25 0.01 -- 65.3 100.0
06/29/2018 20:00 574.27 0.00 -- 66.2 100.0
06/29/2018 19:00 574.26 0.00 -- 67.7 100.0
06/29/2018 18:00 574.25 0.00 -- 68.0 95.0
06/29/2018 17:00 574.26 0.00 -- 70.1 93.0
06/29/2018 16:00 574.23 0.00 -- 74.5 79.0
06/29/2018 15:00 574.26 0.01 -- 77.5 70.0
06/29/2018 14:00 574.26 0.00 -- 82.2 72.0
06/29/2018 13:00 574.27 0.00 -- 83.0 75.0
06/29/2018 12:00 574.24 0.01 -- 85.1 88.0
06/29/2018 11:00 574.27 0.00 -- 83.1 92.0
06/29/2018 10:00 574.25 0.00 -- 82.0 100.0
06/29/2018 09:00 574.26 0.01 -- 80.1 100.0
06/29/2018 08:00 574.27 0.00 -- 78.1 100.0
06/29/2018 07:00 574.26 0.00 -- 76.1 100.0
06/29/2018 06:00 574.26 0.00 -- 73.1 100.0
06/29/2018 05:00 574.27 0.00 -- 70.7 100.0
06/29/2018 04:00 574.28 0.01 -- 68.1 100.0
06/29/2018 03:00 574.26 0.00 -- 66.3 100.0
06/29/2018 02:00 574.25 0.00 -- 64.7 100.0
06/29/2018 01:00 574.26 0.00 -- 65.5 100.0
06/29/2018 00:00 574.26 0.00 0.05 64.7 100.0
06/28/2018 23:00 574.26 0.00 -- 65.6 100.0
06/28/2018 22:00 574.27 0.01 -- 66.0 100.0
06/28/2018 21:00 574.26 0.00 -- 67.3 100.0
06/28/2018 20:00 574.26 0.00 -- 66.3 100.0
06/28/2018 19:00 574.26 0.00 -- 66.3 100.0
06/28/2018 18:00 574.27 0.00 -- 66.8 100.0
06/28/2018 17:00 574.26 0.01 -- 67.6 100.0
06/28/2018 16:00 574.25 0.00 -- 68.0 100.0
06/28/2018 15:00 574.25 0.00 -- 67.9 100.0
06/28/2018 14:00 574.27 0.00 -- 67.2 100.0
06/28/2018 13:00 574.18 0.00 -- 68.9 100.0
06/28/2018 12:00 574.16 0.01 -- 69.0 100.0
06/28/2018 11:00 574.15 0.00 -- 69.4 100.0
06/28/2018 10:00 574.15 0.00 -- 69.0 100.0
06/28/2018 09:00 574.14 0.00 -- 68.5 100.0
06/28/2018 08:00 574.16 0.01 -- 67.2 100.0
06/28/2018 07:00 574.16 0.00 -- 66.3 100.0
06/28/2018 06:00 574.13 0.00 -- 65.7 100.0
06/28/2018 05:00 574.14 0.01 -- 65.0 100.0
06/28/2018 04:00 574.14 0.00 -- 64.1 100.0
06/28/2018 03:00 574.19 0.00 -- 63.2 100.0
06/28/2018 02:00 574.12 0.01 -- 62.6 100.0
06/28/2018 01:00 574.12 0.00 -- 61.8 100.0
06/28/2018 00:00 574.13 0.01 0.06 60.9 100.0
06/27/2018 23:00 574.11 0.01 -- 60.6 100.0
06/27/2018 22:00 574.12 0.01 -- 60.5 100.0
06/27/2018 21:00 574.13 0.01 -- 60.4 100.0
06/27/2018 20:00 574.09 0.01 -- 61.0 100.0
06/27/2018 19:00 574.09 0.03 -- 62.6 100.0
06/27/2018 18:00 574.07 0.00 -- 67.2 100.0
06/27/2018 17:00 574.08 0.00 -- 68.8 100.0
06/27/2018 16:00 574.10 0.00 -- 69.9 100.0
06/27/2018 15:00 574.07 0.00 -- 71.2 100.0
06/27/2018 14:00 574.07 0.00 -- 71.8 100.0
06/27/2018 13:00 574.08 0.00 -- 72.4 100.0
06/27/2018 12:00 574.07 0.00 -- 73.3 100.0
06/27/2018 11:00 574.07 0.00 -- 74.3 100.0
06/27/2018 10:00 574.08 0.00 -- 74.5 100.0
06/27/2018 09:00 574.09 0.00 -- 75.2 100.0
06/27/2018 08:00 574.08 0.00 -- 74.0 100.0
06/27/2018 07:00 574.10 0.00 -- 73.1 100.0
06/27/2018 06:00 574.10 0.00 -- 71.5 100.0
06/27/2018 05:00 574.09 0.00 -- 67.9 100.0
06/27/2018 04:00 574.10 0.00 -- 61.3 100.0
06/27/2018 03:00 574.09 0.00 -- 59.0 100.0
06/27/2018 02:00 574.10 0.00 -- 56.8 100.0
06/27/2018 01:00 574.09 0.00 -- 56.6 100.0
06/27/2018 00:00 574.10 0.00 0.08 56.1 100.0
06/26/2018 23:00 574.08 0.00 -- 54.9 100.0
06/26/2018 22:00 574.10 0.00 -- 55.3 100.0
06/26/2018 21:00 574.10 0.00 -- 56.1 100.0
06/26/2018 20:00 574.09 0.00 -- 58.0 100.0
06/26/2018 19:00 574.10 0.00 -- 58.6 100.0
06/26/2018 18:00 574.10 0.00 -- 59.3 100.0
06/26/2018 17:00 574.09 0.00 -- 61.8 100.0
06/26/2018 16:00 574.11 0.00 -- 66.4 100.0
06/26/2018 15:00 574.10 0.00 -- 71.8 100.0
06/26/2018 14:00 574.10 0.00 -- 75.0 100.0
06/26/2018 13:00 574.09 0.00 -- 75.7 100.0
06/26/2018 12:00 574.11 0.00 -- 75.0 100.0
06/26/2018 11:00 574.10 0.00 -- 73.6 100.0
06/26/2018 10:00 574.10 0.01 -- 73.2 100.0
06/26/2018 09:00 574.12 0.00 -- 71.3 100.0
06/26/2018 08:00 574.11 0.00 -- 69.5 100.0
06/26/2018 07:00 574.12 0.00 -- 68.8 100.0
06/26/2018 06:00 574.11 0.00 -- 66.2 100.0
06/26/2018 05:00 574.10 0.01 -- 61.5 100.0
06/26/2018 04:00 574.11 0.00 -- 58.4 100.0
06/26/2018 03:00 574.11 0.00 -- 56.5 100.0
06/26/2018 02:00 574.12 0.00 -- 53.9 100.0
06/26/2018 01:00 574.12 0.00 -- 54.1 100.0
06/26/2018 00:00 574.12 0.00 0.02 53.8 100.0
06/25/2018 23:00 574.11 0.01 -- 51.0 100.0
06/25/2018 22:00 574.12 0.00 -- 50.5 100.0
06/25/2018 21:00 574.10 0.00 -- 51.2 100.0
06/25/2018 20:00 574.12 0.00 -- 51.8 100.0
06/25/2018 19:00 574.11 0.00 -- 51.9 100.0
06/25/2018 18:00 574.12 0.00 -- 52.6 100.0
06/25/2018 17:00 574.12 0.01 -- 56.9 100.0
06/25/2018 16:00 574.14 0.00 -- 59.1 100.0
06/25/2018 15:00 574.14 0.00 -- 62.2 100.0
06/25/2018 14:00 574.11 0.00 -- 65.4 100.0
06/25/2018 13:00 574.13 0.01 -- 71.1 100.0
06/25/2018 12:00 574.11 0.00 -- 70.4 89.0
06/25/2018 11:00 574.16 0.01 -- 69.6 94.0
06/25/2018 10:00 574.10 0.00 -- 68.2 96.0
06/25/2018 09:00 574.10 0.00 -- 66.7 100.0
06/25/2018 08:00 574.09 0.01 -- 66.0 100.0
06/25/2018 07:00 574.13 0.00 -- 61.6 100.0
06/25/2018 06:00 574.10 0.01 -- 58.7 100.0
06/25/2018 05:00 574.11 0.00 -- 58.6 100.0
06/25/2018 04:00 574.11 0.00 -- 61.6 100.0
06/25/2018 03:00 574.11 0.00 -- 61.7 100.0
06/25/2018 02:00 574.09 0.01 -- 60.8 100.0
06/25/2018 01:00 574.11 0.00 -- 60.8 100.0
06/25/2018 00:00 574.11 0.01 0.07 61.6 100.0
06/24/2018 23:00 574.10 0.01 -- 62.7 100.0
06/24/2018 22:00 574.11 0.01 -- 62.7 100.0
06/24/2018 21:00 574.12 0.01 -- 63.0 100.0
06/24/2018 20:00 574.11 0.01 -- 63.3 100.0
06/24/2018 19:00 574.10 0.00 -- 63.2 100.0
06/24/2018 18:00 574.10 0.01 -- 63.6 100.0
06/24/2018 17:00 574.10 0.00 -- 64.1 100.0
06/24/2018 16:00 574.10 0.00 -- 65.0 100.0
06/24/2018 15:00 574.10 0.00 -- 66.3 100.0
06/24/2018 14:00 574.10 0.00 -- 69.3 100.0
06/24/2018 13:00 574.09 0.00 -- 70.5 100.0
06/24/2018 12:00 574.10 0.00 -- 72.5 100.0
06/24/2018 11:00 574.10 0.00 -- 70.1 100.0
06/24/2018 10:00 574.11 0.00 -- 68.7 100.0
06/24/2018 09:00 574.09 0.00 -- 67.7 100.0
06/24/2018 08:00 574.09 0.00 -- 66.3 100.0
06/24/2018 07:00 574.10 0.00 -- 65.5 100.0
06/24/2018 06:00 574.11 0.00 -- 62.3 100.0
06/24/2018 05:00 574.10 0.00 -- 59.4 100.0
06/24/2018 04:00 574.12 0.00 -- 56.8 100.0
06/24/2018 03:00 574.12 0.00 -- 54.8 100.0
06/24/2018 02:00 574.09 0.00 -- 52.7 100.0
06/24/2018 01:00 574.11 0.00 -- 51.0 100.0
06/24/2018 00:00 574.11 0.00 0.06 52.4 100.0
06/23/2018 23:00 574.11 0.00 -- 52.8 100.0
06/23/2018 22:00 574.10 0.02 -- 52.1 100.0
06/23/2018 21:00 574.11 0.03 -- 51.7 100.0
06/23/2018 20:00 574.11 0.01 -- 51.8 100.0
06/23/2018 19:00 574.10 0.00 -- 52.4 100.0
06/23/2018 18:00 574.09 0.04 -- 52.1 100.0
06/23/2018 17:00 574.11 0.05 -- 52.0 100.0
06/23/2018 16:00 574.07 0.07 -- 52.3 100.0
06/23/2018 15:00 574.16 0.06 -- 52.7 100.0
06/23/2018 14:00 574.09 0.02 -- 53.3 100.0
06/23/2018 13:00 574.07 0.02 -- 53.3 100.0
06/23/2018 12:00 574.08 0.10 -- 53.7 100.0
06/23/2018 11:00 574.07 0.04 -- 53.8 100.0
06/23/2018 10:00 574.06 0.01 -- 60.8 100.0
06/23/2018 09:00 574.08 0.00 -- 61.9 100.0
06/23/2018 08:00 574.08 0.00 -- 64.3 100.0
06/23/2018 07:00 574.08 0.00 -- 63.2 100.0
06/23/2018 06:00 574.07 0.00 -- 61.3 100.0
06/23/2018 05:00 574.07 0.00 -- 58.2 100.0
06/23/2018 04:00 574.07 0.00 -- 57.4 100.0
06/23/2018 03:00 574.04 0.00 -- 55.7 100.0
06/23/2018 02:00 574.08 0.00 -- 54.7 100.0
06/23/2018 01:00 574.08 0.00 -- 54.0 100.0
06/23/2018 00:00 574.06 0.00 0.47 54.3 100.0
06/22/2018 23:00 574.07 0.00 -- 54.9 100.0
06/22/2018 22:00 574.05 0.00 -- 56.7 100.0
06/22/2018 21:00 574.07 0.00 -- 57.5 100.0
06/22/2018 20:00 574.08 0.00 -- 58.3 100.0
06/22/2018 19:00 574.08 0.00 -- 60.2 100.0
06/22/2018 18:00 574.08 0.00 -- 60.6 100.0
06/22/2018 17:00 574.07 0.00 -- 61.7 100.0
06/22/2018 16:00 574.09 0.00 -- 63.6 100.0
06/22/2018 15:00 574.07 0.00 -- 66.3 100.0
06/22/2018 14:00 574.08 0.00 -- 69.7 100.0
06/22/2018 13:00 574.07 0.00 -- 72.7 100.0
06/22/2018 12:00 574.08 0.00 -- 73.5 100.0
06/22/2018 11:00 574.09 0.00 -- 75.0 100.0
06/22/2018 10:00 574.08 0.00 -- 74.1 100.0
06/22/2018 09:00 574.08 0.00 -- 72.6 100.0
06/22/2018 08:00 574.09 0.00 -- 71.7 100.0
06/22/2018 07:00 574.09 0.00 -- 69.0 100.0
06/22/2018 06:00 574.09 0.00 -- 66.1 100.0
06/22/2018 05:00 574.08 0.00 -- 61.6 100.0
06/22/2018 04:00 574.07 0.00 -- 58.9 100.0
06/22/2018 03:00 574.08 0.00 -- 55.0 100.0
06/22/2018 02:00 574.08 0.00 -- 51.2 100.0
06/22/2018 01:00 574.08 0.00 -- 50.7 100.0
06/22/2018 00:00 574.08 0.00 0.00 52.2 100.0
06/21/2018 23:00 574.08 0.00 -- 53.7 100.0
06/21/2018 22:00 574.08 0.00 -- 55.6 100.0
06/21/2018 21:00 574.09 0.00 -- 57.0 100.0
06/21/2018 20:00 574.10 0.00 -- 57.4 100.0
06/21/2018 19:00 574.07 0.00 -- 58.6 100.0
06/21/2018 18:00 574.08 0.00 -- 60.5 100.0
06/21/2018 17:00 574.10 0.00 -- 65.0 100.0
06/21/2018 16:00 574.10 0.00 -- 68.9 100.0
06/21/2018 15:00 574.09 0.00 -- 71.2 100.0
06/21/2018 14:00 574.09 0.00 -- 69.5 100.0
06/21/2018 13:00 574.10 0.00 -- 68.8 100.0
06/21/2018 12:00 574.10 0.00 -- 68.8 100.0
06/21/2018 11:00 574.09 0.00 -- 68.7 100.0
06/21/2018 10:00 574.10 0.00 -- 68.0 100.0
06/21/2018 09:00 574.10 0.00 -- 66.3 100.0
06/21/2018 08:00 574.09 0.00 -- 63.2 100.0
06/21/2018 07:00 574.08 0.00 -- 60.4 100.0
06/21/2018 06:00 574.10 0.00 -- 61.5 100.0
06/21/2018 05:00 574.10 0.00 -- 61.9 100.0
06/21/2018 04:00 574.08 0.00 -- 65.3 100.0
06/21/2018 03:00 574.09 0.00 -- 63.2 100.0
06/21/2018 02:00 574.09 0.00 -- 63.9 100.0
06/21/2018 01:00 574.10 0.00 -- 64.4 100.0
06/21/2018 00:00 574.09 0.00 0.00 64.7 100.0
06/20/2018 23:00 574.10 0.00 -- 63.6 100.0
06/20/2018 22:00 574.09 0.00 -- 65.3 100.0
06/20/2018 21:00 574.10 0.00 -- 69.5 100.0
06/20/2018 20:00 574.11 0.00 -- 74.5 100.0
06/20/2018 19:00 574.10 0.00 -- 76.3 100.0
06/20/2018 18:00 574.09 0.00 -- 77.2 100.0
06/20/2018 17:00 574.10 0.00 -- 77.4 100.0
06/20/2018 16:00 574.08 0.00 -- 77.0 100.0
06/20/2018 15:00 574.08 0.00 -- 76.0 100.0
06/20/2018 14:00 574.12 0.00 -- 75.1 100.0
06/20/2018 13:00 574.08 0.00 -- 74.5 100.0
06/20/2018 12:00 574.10 0.00 -- 72.8 100.0
06/20/2018 11:00 574.12 0.00 -- 71.9 100.0
06/20/2018 10:00 574.11 0.00 -- 68.1 100.0
06/20/2018 09:00 574.11 0.00 -- 62.7 100.0
06/20/2018 08:00 574.11 0.00 -- 59.6 100.0
06/20/2018 07:00 574.10 0.00 -- 57.1 100.0
06/20/2018 06:00 574.10 0.00 -- 53.9 100.0
06/20/2018 05:00 574.10 0.00 -- 52.6 100.0
06/20/2018 04:00 574.11 0.00 -- 53.2 100.0
06/20/2018 03:00 574.10 0.00 -- 54.5 100.0
06/20/2018 02:00 574.10 0.00 -- 54.9 100.0
06/20/2018 01:00 574.11 0.00 -- 55.6 100.0
06/20/2018 00:00 574.09 0.00 0.00 57.7 100.0
06/19/2018 23:00 574.09 0.00 -- 60.3 100.0
06/19/2018 22:00 574.09 0.00 -- 63.7 100.0
06/19/2018 21:00 574.10 0.00 -- 69.7 100.0
06/19/2018 20:00 574.11 0.00 -- 73.1 100.0
06/19/2018 19:00 574.14 0.00 -- 74.4 100.0
06/19/2018 18:00 574.13 0.00 -- 76.2 100.0
06/19/2018 17:00 574.11 0.00 -- 76.3 100.0
06/19/2018 16:00 574.10 0.00 -- 74.9 100.0
06/19/2018 15:00 574.16 0.00 -- 73.7 100.0
06/19/2018 14:00 574.15 0.00 -- 72.2 100.0
06/19/2018 13:00 574.15 0.00 -- 71.7 100.0
06/19/2018 12:00 574.11 0.00 -- 71.0 100.0
06/19/2018 11:00 574.13 0.00 -- 68.9 100.0
06/19/2018 10:00 574.12 0.00 -- 68.1 100.0
06/19/2018 09:00 574.12 0.00 -- 67.0 100.0
06/19/2018 08:00 574.13 0.00 -- 66.3 100.0
06/19/2018 07:00 574.11 0.00 -- 63.5 100.0
06/19/2018 06:00 574.13 0.00 -- 66.8 100.0
06/19/2018 05:00 574.11 0.00 -- 69.6 100.0
06/19/2018 04:00 574.14 0.00 -- 71.0 100.0
06/19/2018 03:00 574.15 0.03 -- 71.2 100.0
06/19/2018 02:00 574.14 0.06 -- 71.6 100.0
06/19/2018 01:00 574.10 0.00 -- 73.0 100.0
06/19/2018 00:00 574.12 0.00 0.09 72.9 100.0
06/18/2018 23:00 574.13 0.00 -- 72.3 100.0
06/18/2018 22:00 574.11 0.00 -- 71.3 100.0
06/18/2018 21:00 574.11 0.04 -- 73.6 100.0
06/18/2018 20:00 574.01 0.12 -- 74.2 100.0
06/18/2018 19:00 574.08 0.00 -- 79.6 100.0
06/18/2018 18:00 574.08 0.00 -- 79.7 100.0
06/18/2018 17:00 574.09 0.00 -- 83.5 100.0
06/18/2018 16:00 574.08 0.00 -- 83.5 100.0
06/18/2018 15:00 574.08 0.00 -- 83.3 100.0
06/18/2018 14:00 574.10 0.00 -- 83.5 100.0
06/18/2018 13:00 574.10 0.00 -- 82.9 100.0
06/18/2018 12:00 574.09 0.00 -- 80.4 100.0
06/18/2018 11:00 574.09 0.00 -- 77.4 100.0
06/18/2018 10:00 574.09 0.00 -- 70.4 100.0
06/18/2018 09:00 574.09 0.00 -- 65.7 100.0
06/18/2018 08:00 574.09 0.00 -- 63.0 100.0
06/18/2018 07:00 574.09 0.00 -- 61.3 100.0
06/18/2018 06:00 574.09 0.00 -- 61.3 100.0
06/18/2018 05:00 574.06 0.00 -- 60.2 100.0
06/18/2018 04:00 574.10 0.00 -- 57.4 100.0
06/18/2018 03:00 574.10 0.00 -- 56.1 100.0
06/18/2018 02:00 574.09 0.00 -- 56.5 100.0
06/18/2018 01:00 574.09 0.00 -- 58.0 100.0
06/18/2018 00:00 574.08 0.00 0.16 60.4 100.0
06/17/2018 23:00 574.09 0.00 -- 62.9 100.0
06/17/2018 22:00 574.10 0.00 -- 63.5 100.0
06/17/2018 21:00 574.11 0.00 -- 66.5 100.0
06/17/2018 20:00 574.10 0.00 -- 69.6 100.0
06/17/2018 19:00 574.09 0.00 -- 73.7 100.0
06/17/2018 18:00 574.08 0.00 -- 78.1 100.0
06/17/2018 17:00 574.09 0.00 -- 80.5 100.0
06/17/2018 16:00 574.11 0.00 -- 82.2 100.0
06/17/2018 15:00 574.09 0.00 -- 82.9 100.0
06/17/2018 14:00 574.10 0.00 -- 80.8 100.0
06/17/2018 13:00 574.07 0.00 -- 80.2 100.0
06/17/2018 12:00 574.10 0.00 -- 77.4 100.0
06/17/2018 11:00 574.10 0.00 -- 74.4 100.0
06/17/2018 10:00 574.09 0.00 -- 69.1 100.0
06/17/2018 09:00 574.09 0.00 -- 64.4 100.0
06/17/2018 08:00 574.09 0.00 -- 63.5 100.0
06/17/2018 07:00 574.09 0.00 -- 60.6 100.0
06/17/2018 06:00 574.10 0.00 -- 61.4 100.0
06/17/2018 05:00 574.09 0.00 -- 60.3 100.0
06/17/2018 04:00 574.09 0.00 -- 55.8 100.0
06/17/2018 03:00 574.10 0.00 -- 55.4 100.0
06/17/2018 02:00 574.10 0.00 -- 57.6 100.0
06/17/2018 01:00 574.09 0.00 -- 59.2 100.0
06/17/2018 00:00 574.10 0.00 0.00 62.0 100.0
06/16/2018 23:00 574.10 0.00 -- 64.1 100.0
06/16/2018 22:00 574.08 0.00 -- 66.7 100.0
06/16/2018 21:00 574.10 0.00 -- 69.8 100.0
06/16/2018 20:00 574.09 0.00 -- 75.6 100.0
06/16/2018 19:00 574.10 0.00 -- 77.5 100.0
06/16/2018 18:00 574.10 0.00 -- 78.5 100.0
06/16/2018 17:00 574.10 0.00 -- 78.3 100.0
06/16/2018 16:00 574.10 0.00 -- 78.5 100.0
06/16/2018 15:00 574.11 0.00 -- 76.5 100.0
06/16/2018 14:00 574.12 0.00 -- 74.8 100.0
06/16/2018 13:00 574.10 0.00 -- 73.2 100.0
06/16/2018 12:00 574.10 0.00 -- 70.4 100.0
06/16/2018 11:00 574.09 0.00 -- 68.3 100.0
06/16/2018 10:00 574.10 0.00 -- 65.5 100.0
06/16/2018 09:00 574.10 0.00 -- 63.1 100.0
06/16/2018 08:00 574.10 0.00 -- 60.7 100.0
06/16/2018 07:00 574.10 0.00 -- 58.7 100.0
06/16/2018 06:00 574.09 0.00 -- 59.2 100.0
06/16/2018 05:00 574.11 0.00 -- 59.4 100.0
06/16/2018 04:00 574.09 0.00 -- 54.9 100.0
06/16/2018 03:00 574.10 0.00 -- 52.8 100.0
06/16/2018 02:00 574.09 0.00 -- 53.1 100.0
06/16/2018 01:00 574.09 0.00 -- 53.8 100.0
06/16/2018 00:00 574.09 0.00 0.00 55.4 100.0
06/15/2018 23:00 574.10 0.00 -- 56.6 100.0
06/15/2018 22:00 574.10 0.00 -- 58.3 100.0
06/15/2018 21:00 574.10 0.00 -- 61.3 100.0
06/15/2018 20:00 574.10 0.00 -- 64.4 100.0
06/15/2018 19:00 574.11 0.00 -- 69.5 100.0
06/15/2018 18:00 574.10 0.00 -- 69.8 100.0
06/15/2018 17:00 574.11 0.00 -- 66.3 100.0
06/15/2018 16:00 574.10 0.00 -- 67.2 100.0
06/15/2018 15:00 574.11 0.00 -- 65.7 100.0
06/15/2018 14:00 574.11 0.00 -- 61.6 100.0
06/15/2018 13:00 574.11 0.00 -- 58.6 100.0
06/15/2018 12:00 574.10 0.00 -- 56.3 100.0
06/15/2018 11:00 574.10 0.01 -- 55.3 100.0
06/15/2018 10:00 574.11 0.02 -- 53.9 100.0
06/15/2018 09:00 574.10 0.01 -- 52.7 100.0
06/15/2018 08:00 574.09 0.02 -- 51.6 100.0
06/15/2018 07:00 574.10 0.00 -- 51.4 100.0
06/15/2018 06:00 574.10 0.01 -- 51.7 100.0
06/15/2018 05:00 574.10 0.01 -- 51.9 100.0
06/15/2018 04:00 574.10 0.01 -- 52.7 100.0
06/15/2018 03:00 574.10 0.00 -- 53.5 100.0
06/15/2018 02:00 574.10 0.01 -- 54.7 100.0
06/15/2018 01:00 574.10 0.00 -- 56.0 100.0
06/15/2018 00:00 574.10 0.00 0.10 57.3 100.0
06/14/2018 23:00 574.09 0.00 -- 61.4 100.0
06/14/2018 22:00 574.10 0.00 -- 62.5 100.0
06/14/2018 21:00 574.10 0.00 -- 63.5 100.0
06/14/2018 20:00 574.09 0.00 -- 64.1 100.0
06/14/2018 19:00 574.13 0.00 -- 64.1 100.0
06/14/2018 18:00 574.13 0.00 -- 65.5 100.0
06/14/2018 17:00 574.10 0.00 -- 67.0 100.0
06/14/2018 16:00 574.09 0.00 -- 66.3 100.0
06/14/2018 15:00 574.11 0.00 -- 65.8 100.0
06/14/2018 14:00 574.14 0.00 -- 65.5 100.0
06/14/2018 13:00 574.10 0.00 -- 65.6 100.0
06/14/2018 12:00 574.09 0.00 -- 66.0 100.0
06/14/2018 11:00 574.08 0.00 -- 65.4 100.0
06/14/2018 10:00 574.11 0.00 -- 65.5 100.0
06/14/2018 09:00 574.10 0.00 -- 64.1 100.0
06/14/2018 08:00 574.11 0.00 -- 60.0 100.0
06/14/2018 07:00 574.12 0.00 -- 59.2 100.0
06/14/2018 06:00 574.10 0.00 -- 59.5 100.0
06/14/2018 05:00 574.09 0.00 -- 60.8 100.0
06/14/2018 04:00 574.10 0.00 -- 63.7 100.0
06/14/2018 03:00 574.12 0.06 -- 65.1 100.0
06/14/2018 02:00 574.15 0.08 -- 66.1 100.0
06/14/2018 01:00 574.05 0.00 -- 67.4 100.0
06/14/2018 00:00 574.07 0.00 0.14 66.4 100.0
06/13/2018 23:00 574.07 0.00 -- 66.5 100.0
06/13/2018 22:00 574.07 0.00 -- 67.3 100.0
06/13/2018 21:00 574.08 0.00 -- 68.0 100.0
06/13/2018 20:00 574.07 0.00 -- 68.0 100.0
06/13/2018 19:00 574.08 0.00 -- 67.9 100.0
06/13/2018 18:00 574.08 0.00 -- 69.6 100.0
06/13/2018 17:00 574.09 0.00 -- 70.7 100.0
06/13/2018 16:00 574.08 0.00 -- 75.4 100.0
06/13/2018 15:00 574.09 0.00 -- 76.8 100.0
06/13/2018 14:00 574.07 0.00 -- 78.3 100.0
06/13/2018 13:00 574.09 0.00 -- 76.6 100.0
06/13/2018 12:00 574.09 0.00 -- 73.9 100.0
06/13/2018 11:00 574.09 0.00 -- 72.1 100.0
06/13/2018 10:00 574.09 0.00 -- 69.2 100.0
06/13/2018 09:00 574.09 0.00 -- 65.4 100.0
06/13/2018 08:00 574.09 0.00 -- 60.7 100.0
06/13/2018 07:00 574.09 0.00 -- 62.1 100.0
06/13/2018 06:00 574.10 0.00 -- 63.7 100.0
06/13/2018 05:00 574.10 0.00 -- 61.6 100.0
06/13/2018 04:00 574.08 0.00 -- 63.2 100.0
06/13/2018 03:00 574.07 0.00 -- 63.4 100.0
06/13/2018 02:00 574.07 0.00 -- 64.7 100.0
06/13/2018 01:00 574.10 0.00 -- 67.2 100.0
06/13/2018 00:00 574.09 0.00 0.00 70.1 100.0
06/12/2018 23:00 574.09 0.00 -- 71.0 100.0
06/12/2018 22:00 574.08 0.00 -- 71.9 100.0
06/12/2018 21:00 574.09 0.00 -- 74.1 100.0
06/12/2018 20:00 574.07 0.00 -- 76.8 100.0
06/12/2018 19:00 574.08 0.00 -- 77.9 100.0
06/12/2018 18:00 574.06 0.00 -- 79.7 100.0
06/12/2018 17:00 574.04 0.00 -- 79.8 100.0
06/12/2018 16:00 574.10 0.00 -- 78.7 100.0
06/12/2018 15:00 574.09 0.00 -- 76.3 100.0
06/12/2018 14:00 574.08 0.00 -- 73.7 100.0
06/12/2018 13:00 574.09 0.00 -- 71.8 100.0
06/12/2018 12:00 574.10 0.00 -- 67.9 100.0
06/12/2018 11:00 574.10 0.00 -- 65.7 100.0
06/12/2018 10:00 574.10 0.00 -- 62.7 100.0
06/12/2018 09:00 574.11 0.00 -- 59.1 100.0
06/12/2018 08:00 574.10 0.00 -- 53.7 100.0
06/12/2018 07:00 574.10 0.00 -- 49.1 100.0
06/12/2018 06:00 574.09 0.00 -- 47.5 100.0
06/12/2018 05:00 574.10 0.00 -- 48.7 100.0
06/12/2018 04:00 574.11 0.00 -- 50.0 100.0
06/12/2018 03:00 574.10 0.00 -- 51.0 100.0
06/12/2018 02:00 574.10 0.00 -- 50.5 100.0
06/12/2018 01:00 574.10 0.00 -- 53.3 100.0
06/12/2018 00:00 574.10 0.00 0.00 54.6 100.0
06/11/2018 23:00 574.11 0.00 -- 56.0 100.0
06/11/2018 22:00 574.10 0.00 -- 56.9 100.0
06/11/2018 21:00 574.09 0.00 -- 59.0 100.0
06/11/2018 20:00 574.11 0.00 -- 61.8 100.0
06/11/2018 19:00 574.11 0.00 -- 64.3 100.0
06/11/2018 18:00 574.12 0.00 -- 68.1 100.0
06/11/2018 17:00 574.11 0.00 -- 67.8 100.0
06/11/2018 16:00 574.11 0.00 -- 67.9 100.0
06/11/2018 15:00 574.11 0.00 -- 66.1 100.0
06/11/2018 14:00 574.11 0.00 -- 64.0 100.0
06/11/2018 13:00 574.12 0.00 -- 64.3 100.0
06/11/2018 12:00 574.10 0.00 -- 63.5 100.0
06/11/2018 11:00 574.11 0.00 -- 61.1 100.0
06/11/2018 10:00 574.11 0.00 -- 57.1 100.0
06/11/2018 09:00 574.12 0.00 -- 54.1 100.0
06/11/2018 08:00 574.11 0.00 -- 52.0 100.0
06/11/2018 07:00 574.11 0.00 -- 48.3 100.0
06/11/2018 06:00 574.09 0.00 -- 48.8 100.0
06/11/2018 05:00 574.12 0.00 -- 49.4 100.0
06/11/2018 04:00 574.11 0.00 -- 52.1 100.0
06/11/2018 03:00 574.12 0.00 -- 52.1 100.0
06/11/2018 02:00 574.12 0.00 -- 51.1 100.0
06/11/2018 01:00 574.11 0.00 -- 51.1 100.0
06/11/2018 00:00 574.11 0.00 0.00 51.6 100.0
06/10/2018 23:00 574.13 0.00 -- 54.6 100.0
06/10/2018 22:00 574.11 0.00 -- 59.2 100.0
06/10/2018 21:00 574.11 0.00 -- 62.4 100.0
06/10/2018 20:00 574.11 0.00 -- 65.5 100.0
06/10/2018 19:00 574.12 0.00 -- 70.8 100.0
06/10/2018 18:00 574.12 0.00 -- 71.6 100.0
06/10/2018 17:00 574.11 0.00 -- 72.0 100.0
06/10/2018 16:00 574.12 0.00 -- 72.2 100.0
06/10/2018 15:00 574.13 0.00 -- 69.2 100.0
06/10/2018 14:00 574.12 0.00 -- 68.4 100.0
06/10/2018 13:00 574.12 0.00 -- 67.0 100.0
06/10/2018 12:00 574.11 0.00 -- 66.7 100.0
06/10/2018 11:00 574.12 0.00 -- 63.9 100.0
06/10/2018 10:00 574.11 0.00 -- 61.7 100.0
06/10/2018 09:00 574.12 0.00 -- 57.3 100.0
06/10/2018 08:00 574.12 0.00 -- 51.7 100.0
06/10/2018 07:00 574.11 0.00 -- 48.7 100.0
06/10/2018 06:00 574.13 0.00 -- 48.1 100.0
06/10/2018 05:00 574.12 0.00 -- 47.3 100.0
06/10/2018 04:00 574.11 0.00 -- 48.8 100.0
06/10/2018 03:00 574.11 0.00 -- 49.6 100.0
06/10/2018 02:00 574.12 0.00 -- 51.4 100.0
06/10/2018 01:00 574.12 0.00 -- 53.9 100.0
06/10/2018 00:00 574.11 0.00 0.00 55.8 100.0
06/09/2018 23:00 574.12 0.00 -- 57.9 100.0
06/09/2018 22:00 574.11 0.00 -- 61.3 100.0
06/09/2018 21:00 574.12 0.00 -- 66.2 100.0
06/09/2018 20:00 574.11 0.00 -- 71.7 100.0
06/09/2018 19:00 574.15 0.00 -- 72.8 100.0
06/09/2018 18:00 574.13 0.00 -- 74.0 100.0
06/09/2018 17:00 574.07 0.00 -- 74.2 100.0
06/09/2018 16:00 574.10 0.00 -- 73.5 100.0
06/09/2018 15:00 574.12 0.00 -- 72.4 100.0
06/09/2018 14:00 574.13 0.00 -- 71.1 100.0
06/09/2018 13:00 574.15 0.00 -- 68.8 100.0
06/09/2018 12:00 574.11 0.00 -- 66.9 100.0
06/09/2018 11:00 574.14 0.00 -- 64.9 100.0
06/09/2018 10:00 574.12 0.00 -- 63.2 100.0
06/09/2018 09:00 574.12 0.00 -- 60.1 100.0
06/09/2018 08:00 574.14 0.00 -- 54.1 100.0
06/09/2018 07:00 574.14 0.00 -- 54.6 100.0
06/09/2018 06:00 574.12 0.00 -- 52.2 100.0
06/09/2018 05:00 574.12 0.00 -- 51.5 100.0
06/09/2018 04:00 574.12 0.00 -- 51.5 100.0
06/09/2018 03:00 574.13 0.00 -- 51.8 100.0
06/09/2018 02:00 574.13 0.00 -- 50.4 100.0
06/09/2018 01:00 574.12 0.00 -- 51.4 100.0
06/09/2018 00:00 574.12 0.00 0.00 53.0 100.0
06/08/2018 23:00 574.12 0.00 -- 56.2 100.0
06/08/2018 22:00 574.13 0.00 -- 60.5 100.0
06/08/2018 21:00 574.13 0.00 -- 64.5 100.0
06/08/2018 20:00 574.13 0.00 -- 71.2 100.0
06/08/2018 19:00 574.14 0.00 -- 72.7 100.0
06/08/2018 18:00 574.16 0.00 -- 73.8 86.0
06/08/2018 17:00 574.11 0.00 -- 73.4 82.0
06/08/2018 16:00 574.13 0.00 -- 72.6 71.0
06/08/2018 15:00 574.13 0.00 -- 73.0 67.0
06/08/2018 14:00 574.13 0.00 -- 72.0 60.0
06/08/2018 13:00 574.12 0.00 -- 70.9 57.0
06/08/2018 12:00 574.13 0.00 -- 69.0 62.0
06/08/2018 11:00 574.13 0.00 -- 66.1 58.0
06/08/2018 10:00 574.15 0.00 -- 60.9 64.0
06/08/2018 09:00 574.11 0.00 -- 60.0 64.0
06/08/2018 08:00 574.15 0.00 -- 55.2 63.0
06/08/2018 07:00 574.13 0.00 -- 52.9 63.0
06/08/2018 06:00 574.13 0.00 -- 53.5 62.0
06/08/2018 05:00 574.13 0.00 -- 54.9 63.0
06/08/2018 04:00 574.13 0.00 -- 55.6 62.0
06/08/2018 03:00 574.14 0.00 -- 55.2 60.0
06/08/2018 02:00 574.13 0.00 -- 57.0 59.0
06/08/2018 01:00 574.13 0.00 -- 58.8 57.0
06/08/2018 00:00 574.12 0.00 0.00 58.0 56.0
06/07/2018 23:00 574.13 0.00 -- 60.1 55.0
06/07/2018 22:00 574.13 0.00 -- 61.3 55.0
06/07/2018 21:00 574.12 0.00 -- 62.4 55.0
06/07/2018 20:00 574.12 0.00 -- 64.8 56.0
06/07/2018 19:00 574.12 0.00 -- 65.8 56.0
06/07/2018 18:00 574.12 0.00 -- 66.1 58.0
06/07/2018 17:00 574.13 0.00 -- 64.6 58.0
06/07/2018 16:00 574.14 0.00 -- 66.6 58.0
06/07/2018 15:00 574.13 0.00 -- 65.6 59.0
06/07/2018 14:00 574.13 0.00 -- 66.0 59.0
06/07/2018 13:00 574.13 0.00 -- 63.9 60.0
06/07/2018 12:00 574.13 0.00 -- 59.8 59.0
06/07/2018 11:00 574.13 0.00 -- 56.0 57.0
06/07/2018 10:00 574.13 0.00 -- 53.6 58.0
06/07/2018 09:00 574.15 0.00 -- 52.6 57.0
06/07/2018 08:00 574.13 0.00 -- 51.0 55.0
06/07/2018 07:00 574.14 0.00 -- 50.4 56.0
06/07/2018 06:00 574.14 0.00 -- 50.4 55.0
06/07/2018 05:00 574.13 0.00 -- 49.7 54.0
06/07/2018 04:00 574.13 0.00 -- 51.1 53.0
06/07/2018 03:00 574.13 0.00 -- 51.5 52.0
06/07/2018 02:00 574.14 0.00 -- 51.3 50.0
06/07/2018 01:00 574.14 0.00 -- 50.4 49.0
06/07/2018 00:00 574.13 0.00 0.00 49.7 46.0
06/06/2018 23:00 574.13 0.00 -- 51.1 43.0
06/06/2018 22:00 574.13 0.00 -- 51.5 43.0
06/06/2018 21:00 574.14 0.00 -- 51.3 40.0
06/06/2018 20:00 574.14 0.00 -- 51.9 40.0
06/06/2018 19:00 574.13 0.00 -- 52.6 41.0
06/06/2018 18:00 574.15 0.00 -- 54.5 42.0
06/06/2018 17:00 574.14 0.00 -- 55.8 39.0
06/06/2018 16:00 574.14 0.00 -- 57.8 39.0
06/06/2018 15:00 574.14 0.00 -- 60.5 38.0
06/06/2018 14:00 574.13 0.00 -- 64.6 36.0
06/06/2018 13:00 574.13 0.00 -- 64.4 30.0
06/06/2018 12:00 574.14 0.00 -- 65.1 60.0
06/06/2018 11:00 574.14 0.00 -- 62.7 64.0
06/06/2018 10:00 574.14 0.00 -- 60.6 64.0
06/06/2018 09:00 574.14 0.00 -- 59.6 65.0
06/06/2018 08:00 574.14 0.00 -- 58.1 67.0
06/06/2018 07:00 574.14 0.00 -- 58.2 71.0
06/06/2018 06:00 574.14 0.00 -- 55.6 72.0
06/06/2018 05:00 574.14 0.00 -- 53.1 76.0
06/06/2018 04:00 574.14 0.00 -- 52.2 80.0
06/06/2018 03:00 574.13 0.00 -- 50.6 80.0
06/06/2018 02:00 574.13 0.00 -- 49.6 86.0
06/06/2018 01:00 574.14 0.00 -- 49.6 85.0
06/06/2018 00:00 574.13 0.00 0.00 50.0 85.0
06/05/2018 23:00 574.13 0.00 -- 49.9 88.0
06/05/2018 22:00 574.13 0.00 -- 49.7 93.0
06/05/2018 21:00 574.13 0.00 -- 50.0 100.0
06/05/2018 20:00 574.13 0.00 -- 49.7 100.0
06/05/2018 19:00 574.13 0.00 -- 50.2 100.0
06/05/2018 18:00 574.13 0.02 -- 49.6 100.0
06/05/2018 17:00 574.13 0.04 -- 50.4 100.0
06/05/2018 16:00 574.13 0.05 -- 50.0 100.0
06/05/2018 15:00 574.13 0.04 -- 51.0 100.0
06/05/2018 14:00 574.12 0.00 -- 52.8 100.0
06/05/2018 13:00 574.12 0.01 -- 53.5 100.0
06/05/2018 12:00 574.13 0.02 -- 52.8 100.0
06/05/2018 11:00 574.11 0.04 -- 51.9 100.0
06/05/2018 10:00 574.10 0.01 -- 52.5 100.0
06/05/2018 09:00 574.11 0.00 -- 54.2 100.0
06/05/2018 08:00 574.12 0.00 -- 56.1 100.0
06/05/2018 07:00 574.12 0.00 -- 53.3 100.0
06/05/2018 06:00 574.11 0.00 -- 50.2 100.0
06/05/2018 05:00 574.12 0.00 -- 48.9 100.0
06/05/2018 04:00 574.10 0.00 -- 46.8 100.0
06/05/2018 03:00 574.10 0.00 -- 45.6 100.0
06/05/2018 02:00 574.11 0.00 -- 45.3 100.0
06/05/2018 01:00 574.11 0.00 -- 44.9 100.0
06/05/2018 00:00 574.12 0.00 0.23 45.0 100.0
06/04/2018 23:00 574.11 0.00 -- 44.6 100.0
06/04/2018 22:00 574.11 0.00 -- 45.2 100.0
06/04/2018 21:00 574.11 0.00 -- 44.8 100.0
06/04/2018 20:00 574.12 0.00 -- 45.0 100.0
06/04/2018 19:00 574.12 0.00 -- 45.5 100.0
06/04/2018 18:00 574.12 0.03 -- 45.2 100.0
06/04/2018 17:00 574.11 0.00 -- 45.2 100.0
06/04/2018 16:00 574.14 0.00 -- 45.8 100.0
06/04/2018 15:00 574.12 0.00 -- 46.8 100.0
06/04/2018 14:00 574.10 0.00 -- 47.4 100.0
06/04/2018 13:00 574.12 0.01 -- 47.9 100.0
06/04/2018 12:00 574.11 0.01 -- 48.5 100.0
06/04/2018 11:00 574.11 0.00 -- 48.9 100.0
06/04/2018 10:00 574.14 0.03 -- 48.9 100.0
06/04/2018 09:00 574.11 0.05 -- 49.3 100.0
06/04/2018 08:00 574.11 0.06 -- 48.4 100.0
06/04/2018 07:00 574.11 0.03 -- 48.1 100.0
06/04/2018 06:00 574.10 0.06 -- 47.5 100.0
06/04/2018 05:00 574.09 0.06 -- 47.3 100.0
06/04/2018 04:00 574.08 0.04 -- 47.1 100.0
06/04/2018 03:00 574.09 0.03 -- 47.1 100.0
06/04/2018 02:00 574.10 0.00 -- 48.0 100.0
06/04/2018 01:00 574.07 0.00 -- 47.4 100.0
06/04/2018 00:00 574.08 0.00 0.41 48.2 100.0
06/03/2018 23:00 574.06 0.00 -- 47.5 100.0
06/03/2018 22:00 574.08 0.00 -- 47.7 100.0
06/03/2018 21:00 574.08 0.00 -- 47.2 100.0
06/03/2018 20:00 574.08 0.00 -- 47.9 100.0
06/03/2018 19:00 574.08 0.00 -- 47.7 100.0
06/03/2018 18:00 574.09 0.00 -- 48.5 100.0
06/03/2018 17:00 574.10 0.00 -- 51.4 100.0
06/03/2018 16:00 574.08 0.00 -- 53.9 100.0
06/03/2018 15:00 574.09 0.00 -- 57.2 100.0
06/03/2018 14:00 574.08 0.00 -- 60.5 100.0
06/03/2018 13:00 574.09 0.00 -- 64.3 100.0
06/03/2018 12:00 574.09 0.00 -- 67.0 100.0
06/03/2018 11:00 574.10 0.00 -- 67.4 100.0
06/03/2018 10:00 574.09 0.00 -- 67.1 100.0
06/03/2018 09:00 574.08 0.00 -- 64.7 100.0
06/03/2018 08:00 574.10 0.00 -- 63.2 100.0
06/03/2018 07:00 574.10 0.00 -- 61.3 100.0
06/03/2018 06:00 574.10 0.00 -- 59.8 100.0
06/03/2018 05:00 574.11 0.00 -- 56.4 100.0
06/03/2018 04:00 574.10 0.00 -- 54.8 100.0
06/03/2018 03:00 574.11 0.00 -- 51.8 100.0
06/03/2018 02:00 574.09 0.00 -- 48.9 100.0
06/03/2018 01:00 574.11 0.00 -- 50.2 100.0
06/03/2018 00:00 574.09 0.00 0.00 50.9 100.0
06/02/2018 23:00 574.11 0.00 -- 53.4 100.0
06/02/2018 22:00 574.09 0.00 -- 54.5 100.0
06/02/2018 21:00 574.11 0.00 -- 57.3 100.0
06/02/2018 20:00 574.09 0.00 -- 58.8 100.0
06/02/2018 19:00 574.10 0.00 -- 60.8 100.0
06/02/2018 18:00 574.09 0.00 -- 64.9 100.0
06/02/2018 17:00 574.08 0.00 -- 67.8 100.0
06/02/2018 16:00 574.10 0.00 -- 72.1 100.0
06/02/2018 15:00 574.11 0.00 -- 74.7 100.0
06/02/2018 14:00 574.09 0.00 -- 75.7 100.0
06/02/2018 13:00 574.08 0.00 -- 77.8 100.0
06/02/2018 12:00 574.11 0.00 -- 79.4 100.0
06/02/2018 11:00 574.11 0.00 -- 78.5 100.0
06/02/2018 10:00 574.10 0.00 -- 78.5 100.0
06/02/2018 09:00 574.11 0.00 -- 75.6 100.0
06/02/2018 08:00 574.11 0.00 -- 73.4 100.0
06/02/2018 07:00 574.10 0.00 -- 77.6 100.0
06/02/2018 06:00 574.10 0.00 -- 75.8 100.0
06/02/2018 05:00 574.12 0.00 -- 74.5 100.0
06/02/2018 04:00 574.12 0.00 -- 72.3 100.0
06/02/2018 03:00 574.10 0.00 -- 69.3 100.0
06/02/2018 02:00 574.10 0.00 -- 68.2 100.0
06/02/2018 01:00 574.09 0.00 -- 68.6 100.0
06/02/2018 00:00 574.10 0.00 0.00 68.1 100.0
06/01/2018 23:00 574.10 0.00 -- 67.8 100.0
06/01/2018 22:00 574.10 0.00 -- 68.0 100.0
06/01/2018 21:00 574.10 0.00 -- 68.1 100.0
06/01/2018 20:00 574.10 0.00 -- 69.1 100.0
06/01/2018 19:00 574.11 0.00 -- 69.8 100.0
06/01/2018 18:00 574.10 0.00 -- 70.8 100.0
06/01/2018 17:00 574.10 0.00 -- 71.6 100.0
06/01/2018 16:00 574.10 0.00 -- 73.7 100.0
06/01/2018 15:00 574.09 0.00 -- 76.9 100.0
06/01/2018 14:00 574.10 0.00 -- 78.5 100.0
06/01/2018 13:00 574.10 0.00 -- 77.9 100.0
06/01/2018 12:00 574.10 0.00 -- 78.5 100.0
06/01/2018 11:00 574.10 0.00 -- 76.8 100.0
06/01/2018 10:00 574.10 0.00 -- 74.4 100.0
06/01/2018 09:00 574.09 0.00 -- 73.0 100.0
06/01/2018 08:00 574.09 0.00 -- 72.7 100.0
06/01/2018 07:00 574.10 0.00 -- 74.6 100.0
06/01/2018 06:00 574.10 0.00 -- 72.7 100.0
06/01/2018 05:00 574.11 0.00 -- 70.8 100.0
06/01/2018 04:00 574.08 0.00 -- 69.2 100.0
06/01/2018 03:00 574.09 0.00 -- 67.6 100.0
06/01/2018 02:00 574.09 0.00 -- 66.5 100.0
06/01/2018 01:00 574.09 0.00 -- 66.8 100.0
06/01/2018 00:00 574.10 0.00 0.00 67.4 100.0
05/31/2018 23:00 574.10 0.00 -- 67.7 100.0
05/31/2018 22:00 574.10 0.00 -- 68.0 100.0
05/31/2018 21:00 574.09 0.00 -- 67.5 100.0
05/31/2018 20:00 574.09 0.00 -- 66.3 100.0
05/31/2018 19:00 574.08 0.00 -- 67.7 100.0
05/31/2018 18:00 574.10 0.00 -- 69.3 100.0
05/31/2018 17:00 574.09 0.00 -- 69.8 100.0
05/31/2018 16:00 574.09 0.00 -- 72.4 100.0
05/31/2018 15:00 574.09 0.00 -- 75.8 100.0
05/31/2018 14:00 574.09 0.00 -- 78.6 100.0
05/31/2018 13:00 574.07 0.00 -- 81.1 100.0
05/31/2018 12:00 574.09 0.00 -- 83.8 100.0
05/31/2018 11:00 574.12 0.00 -- 83.3 100.0
05/31/2018 10:00 574.10 0.00 -- 81.1 100.0
05/31/2018 09:00 574.10 0.00 -- 79.9 100.0
05/31/2018 08:00 574.10 0.00 -- 53.1 100.0
05/31/2018 07:00 574.10 0.00 -- 50.4 100.0
05/31/2018 06:00 574.10 0.00 -- 49.9 100.0
05/31/2018 05:00 574.09 0.00 -- 51.1 100.0
05/31/2018 04:00 574.11 0.00 -- 50.7 100.0
05/31/2018 03:00 574.12 0.00 -- 51.7 100.0
05/31/2018 02:00 574.10 0.00 -- 53.1 100.0
05/31/2018 01:00 574.11 0.00 -- 53.7 100.0
05/31/2018 00:00 574.09 0.00 0.00 55.4 100.0
05/30/2018 23:00 574.11 0.00 -- 58.0 100.0
05/30/2018 22:00 574.10 0.00 -- 59.6 100.0
05/30/2018 21:00 574.10 0.00 -- 62.5 100.0
05/30/2018 20:00 574.10 0.00 -- 65.0 100.0
05/30/2018 19:00 574.11 0.00 -- 67.8 100.0
05/30/2018 18:00 574.10 0.00 -- 68.9 100.0
05/30/2018 17:00 574.12 0.00 -- 71.5 100.0
05/30/2018 16:00 574.14 0.00 -- 71.4 100.0
05/30/2018 15:00 574.08 0.00 -- 70.5 100.0
05/30/2018 14:00 574.11 0.00 -- 69.6 100.0
05/30/2018 13:00 574.10 0.00 -- 69.6 100.0
05/30/2018 12:00 574.12 0.00 -- 68.9 100.0
05/30/2018 11:00 574.10 0.00 -- 66.5 100.0
05/30/2018 10:00 574.11 0.00 -- 61.8 100.0
05/30/2018 09:00 574.10 0.00 -- 58.2 100.0
05/30/2018 08:00 574.12 0.00 -- 53.2 100.0
05/30/2018 07:00 574.09 0.00 -- 51.6 100.0
05/30/2018 06:00 574.11 0.00 -- 51.7 100.0
05/30/2018 05:00 574.11 0.00 -- 52.0 100.0
05/30/2018 04:00 574.11 0.00 -- 53.2 100.0
05/30/2018 03:00 574.10 0.00 -- 54.1 100.0
05/30/2018 02:00 574.11 0.00 -- 55.4 100.0
05/30/2018 01:00 574.11 0.00 -- 57.0 100.0
05/30/2018 00:00 574.10 0.00 0.00 59.7 100.0
05/29/2018 23:00 574.10 0.00 -- 62.4 100.0
05/29/2018 22:00 574.11 0.00 -- 66.7 100.0
05/29/2018 21:00 574.10 0.00 -- 71.2 100.0
05/29/2018 20:00 574.10 0.00 -- 76.0 100.0
05/29/2018 19:00 574.10 0.00 -- 80.1 100.0
05/29/2018 18:00 574.11 0.00 -- 83.2 100.0
05/29/2018 17:00 574.10 0.00 -- 82.0 100.0
05/29/2018 16:00 574.10 0.00 -- 81.8 100.0
05/29/2018 15:00 574.10 0.00 -- 81.6 100.0
05/29/2018 14:00 574.11 0.00 -- 79.7 100.0
05/29/2018 13:00 574.12 0.00 -- 76.8 100.0
05/29/2018 12:00 574.12 0.00 -- 74.8 100.0
05/29/2018 11:00 574.10 0.00 -- 74.0 100.0
05/29/2018 10:00 574.10 0.00 -- 67.9 100.0
05/29/2018 09:00 574.10 0.00 -- 63.7 100.0
05/29/2018 08:00 574.12 0.00 -- 60.7 100.0
05/29/2018 07:00 574.09 0.00 -- 58.3 100.0
05/29/2018 06:00 574.13 0.00 -- 56.7 100.0
05/29/2018 05:00 574.11 0.00 -- 56.2 100.0
05/29/2018 04:00 574.11 0.00 -- 54.6 100.0
05/29/2018 03:00 574.09 0.00 -- 55.2 100.0
05/29/2018 02:00 574.09 0.00 -- 55.3 100.0
05/29/2018 01:00 574.13 0.00 -- 56.7 100.0
05/29/2018 00:00 574.11 0.00 0.00 56.2 100.0
05/28/2018 23:00 574.11 0.00 -- 54.6 100.0
05/28/2018 22:00 574.09 0.00 -- 55.2 100.0
05/28/2018 21:00 574.09 0.00 -- 55.3 100.0
05/28/2018 20:00 574.11 0.00 -- 55.6 100.0
05/28/2018 19:00 574.10 0.00 -- 56.2 100.0
05/28/2018 18:00 574.12 0.00 -- 57.1 100.0
05/28/2018 17:00 574.10 0.00 -- 57.8 100.0
05/28/2018 16:00 574.11 0.00 -- 58.5 100.0
05/28/2018 15:00 574.09 0.00 -- 59.5 100.0
05/28/2018 14:00 574.12 0.00 -- 60.1 100.0
05/28/2018 13:00 574.10 0.00 -- 60.3 100.0
05/28/2018 12:00 574.10 0.00 -- 59.5 100.0
05/28/2018 11:00 574.12 0.00 -- 58.5 100.0
05/28/2018 10:00 574.11 0.00 -- 58.5 100.0
05/28/2018 09:00 574.10 0.00 -- 58.1 100.0
05/28/2018 08:00 574.12 0.00 -- 55.9 100.0
05/28/2018 07:00 574.11 0.00 -- 54.1 100.0
05/28/2018 06:00 574.08 0.00 -- 51.7 100.0
05/28/2018 05:00 574.12 0.00 -- 51.3 100.0
05/28/2018 04:00 574.09 0.00 -- 48.3 100.0
05/28/2018 03:00 574.08 0.00 -- 47.1 100.0
05/28/2018 02:00 574.12 0.00 -- 46.3 100.0
05/28/2018 01:00 574.11 0.00 -- 45.7 100.0
05/28/2018 00:00 574.10 0.00 0.00 45.5 100.0
05/27/2018 23:00 574.09 0.00 -- 45.4 100.0
05/27/2018 22:00 574.11 0.00 -- 45.6 100.0
05/27/2018 21:00 574.11 0.02 -- 46.2 100.0
05/27/2018 20:00 574.09 0.01 -- 46.9 100.0
05/27/2018 19:00 574.10 0.00 -- 47.1 100.0
05/27/2018 18:00 574.10 0.00 -- 48.2 100.0
05/27/2018 17:00 574.10 0.00 -- 48.8 100.0
05/27/2018 16:00 574.11 0.00 -- 49.4 100.0
05/27/2018 15:00 574.11 0.00 -- 51.0 100.0
05/27/2018 14:00 574.10 0.00 -- 53.0 100.0
05/27/2018 13:00 574.11 0.00 -- 54.2 100.0
05/27/2018 12:00 574.11 0.00 -- 54.3 100.0
05/27/2018 11:00 574.10 0.00 -- 53.7 100.0
05/27/2018 10:00 574.10 0.00 -- 54.4 100.0
05/27/2018 09:00 574.10 0.00 -- 55.3 100.0
05/27/2018 08:00 574.11 0.00 -- 55.3 100.0
05/27/2018 07:00 574.12 0.00 -- 54.0 100.0
05/27/2018 06:00 574.09 0.00 -- 53.2 100.0
05/27/2018 05:00 574.12 0.00 -- 53.0 100.0
05/27/2018 04:00 574.13 0.00 -- 51.9 100.0
05/27/2018 03:00 574.09 0.00 -- 52.3 100.0
05/27/2018 02:00 574.10 0.00 -- 52.8 100.0
05/27/2018 01:00 574.10 0.00 -- 54.3 100.0
05/27/2018 00:00 574.13 0.00 0.03 55.2 100.0
05/26/2018 23:00 574.10 0.00 -- 56.3 100.0
05/26/2018 22:00 574.10 0.00 -- 57.2 100.0
05/26/2018 21:00 574.10 0.00 -- 60.1 100.0
05/26/2018 20:00 574.11 0.00 -- 62.8 100.0
05/26/2018 19:00 574.10 0.00 -- 63.5 100.0
05/26/2018 18:00 574.11 0.00 -- 63.7 100.0
05/26/2018 17:00 574.10 0.00 -- 64.0 100.0
05/26/2018 16:00 574.12 0.20 -- 64.2 100.0
05/26/2018 15:00 574.10 0.11 -- 64.7 100.0
05/26/2018 14:00 574.04 0.00 -- 69.3 100.0
05/26/2018 13:00 574.06 0.00 -- 72.0 100.0
05/26/2018 12:00 574.06 0.00 -- 73.2 100.0
05/26/2018 11:00 574.07 0.00 -- 73.0 100.0
05/26/2018 10:00 574.08 0.00 -- 72.4 100.0
05/26/2018 09:00 574.09 0.00 -- 72.0 100.0
05/26/2018 08:00 574.09 0.00 -- 72.1 100.0
05/26/2018 07:00 574.09 0.00 -- 70.0 100.0
05/26/2018 06:00 574.06 0.00 -- 65.9 100.0
05/26/2018 05:00 574.09 0.00 -- 65.3 100.0
05/26/2018 04:00 574.09 0.00 -- 63.8 100.0
05/26/2018 03:00 574.07 0.00 -- 62.8 100.0
05/26/2018 02:00 574.08 0.00 -- 62.0 100.0
05/26/2018 01:00 574.08 0.00 -- 61.7 100.0
05/26/2018 00:00 574.05 0.00 0.31 62.0 100.0
05/25/2018 23:00 574.12 0.00 -- 63.3 100.0
05/25/2018 22:00 574.09 0.00 -- 66.0 100.0
05/25/2018 21:00 574.07 0.00 -- 67.9 100.0
05/25/2018 20:00 574.06 0.00 -- 69.5 100.0
05/25/2018 19:00 574.08 0.00 -- 71.9 100.0
05/25/2018 18:00 574.08 0.00 -- 74.3 100.0
05/25/2018 17:00 574.06 0.00 -- 70.1 100.0
05/25/2018 16:00 574.06 0.00 -- 76.4 100.0
05/25/2018 15:00 574.09 0.00 -- 78.5 100.0
05/25/2018 14:00 574.08 0.00 -- 78.4 100.0
05/25/2018 13:00 574.05 0.00 -- 80.0 100.0
05/25/2018 12:00 574.07 0.00 -- 81.1 100.0
05/25/2018 11:00 574.04 0.00 -- 81.9 100.0
05/25/2018 10:00 574.07 0.00 -- 81.5 100.0
05/25/2018 09:00 574.10 0.00 -- 79.1 100.0
05/25/2018 08:00 574.08 0.00 -- 76.4 100.0
05/25/2018 07:00 574.06 0.00 -- 74.2 100.0
05/25/2018 06:00 574.06 0.00 -- 71.7 100.0
05/25/2018 05:00 574.06 0.00 -- 67.1 100.0
05/25/2018 04:00 574.06 0.00 -- 65.8 100.0
05/25/2018 03:00 574.07 0.00 -- 61.1 100.0
05/25/2018 02:00 574.07 0.00 -- 59.1 100.0
05/25/2018 01:00 574.08 0.00 -- 59.6 100.0
05/25/2018 00:00 574.08 0.00 0.00 62.1 100.0
05/24/2018 23:00 574.07 0.00 -- 52.7 100.0
05/24/2018 22:00 574.07 0.00 -- 52.1 100.0
05/24/2018 21:00 574.08 0.00 -- 51.8 100.0
05/24/2018 20:00 574.07 0.00 -- 53.6 100.0
05/24/2018 19:00 574.08 0.00 -- 55.1 100.0
05/24/2018 18:00 574.05 0.00 -- 56.4 100.0
05/24/2018 17:00 574.06 0.00 -- 58.7 100.0
05/24/2018 16:00 574.07 0.00 -- 62.0 100.0
05/24/2018 15:00 574.06 0.00 -- 69.1 100.0
05/24/2018 14:00 574.08 0.00 -- 70.0 100.0
05/24/2018 13:00 574.08 0.00 -- 70.1 100.0
05/24/2018 12:00 574.07 0.00 -- 68.7 100.0
05/24/2018 11:00 574.06 0.00 -- 68.1 100.0
05/24/2018 10:00 574.07 0.00 -- 66.8 100.0
05/24/2018 09:00 574.08 0.00 -- 65.3 100.0
05/24/2018 08:00 574.08 0.00 -- 63.7 100.0
05/24/2018 07:00 574.08 0.00 -- 62.0 100.0
05/24/2018 06:00 574.07 0.00 -- 59.3 100.0
05/24/2018 05:00 574.08 0.00 -- 56.8 100.0
05/24/2018 04:00 574.09 0.00 -- 54.4 100.0
05/24/2018 03:00 574.06 0.00 -- 49.9 100.0
05/24/2018 02:00 574.08 0.00 -- 47.0 100.0
05/24/2018 01:00 574.08 0.00 -- 46.7 100.0
05/24/2018 00:00 574.08 0.00 0.00 47.7 100.0
05/23/2018 23:00 574.07 0.00 -- 49.2 100.0
05/23/2018 22:00 574.07 0.00 -- 50.7 100.0
05/23/2018 21:00 574.07 0.00 -- 52.9 100.0
05/23/2018 20:00 574.09 0.00 -- 55.3 100.0
05/23/2018 19:00 574.05 0.00 -- 58.1 100.0
05/23/2018 18:00 574.06 0.00 -- 58.1 100.0
05/23/2018 17:00 574.07 0.00 -- 63.0 100.0
05/23/2018 16:00 -- -- -- 68.9 100.0
05/23/2018 15:00 -- -- -- 72.6 100.0
05/23/2018 14:00 -- -- -- 74.5 100.0
05/23/2018 13:00 -- -- -- 76.7 100.0
05/23/2018 12:00 -- -- -- 75.4 100.0
05/23/2018 11:00 -- -- -- 77.0 100.0
05/23/2018 10:00 -- -- -- 59.2 100.0
05/23/2018 09:00 -- -- -- 56.4 100.0
05/23/2018 08:00 -- -- -- 54.5 100.0
05/23/2018 07:00 -- -- -- 53.9 100.0
05/23/2018 06:00 -- -- -- 53.6 100.0
05/23/2018 05:00 -- -- -- 53.0 100.0
05/23/2018 04:00 -- -- -- 53.3 100.0
05/23/2018 03:00 -- -- -- 53.2 100.0
05/23/2018 02:00 -- -- -- 52.9 100.0
05/23/2018 01:00 -- -- -- 53.1 100.0
05/23/2018 00:00 -- -- 0.00 53.6 100.0